Wetterdaten: Mittwoch, 10.10.2018
Datum Zeit Temp. Aussen Temp. o. S. +5cm Feuchte Auss Luftdruck Regen Sonnenschein Regendauer Solar Windben Empfang
10.10.2018 00:00 10,8 C 9,4 C 9,4 C 91 % 1018,8 hPa 0,0 l/m 0 min 0 min 0 W/m 0,0 km/h (0 Bft) 100,00 %
10.10.2018 00:02 10,7 C 9,4 C 9,4 C 91 % 1018,8 hPa 0,0 l/m 0 min 0 min 0 W/m 0,0 km/h (0 Bft) 100,00 %
10.10.2018 00:04 10,7 C 9,4 C 9,4 C 91 % 1018,8 hPa 0,0 l/m 0 min 0 min 0 W/m 0,0 km/h (0 Bft) 100,00 %
10.10.2018 00:08 10,7 C 9,4 C 9,4 C 91 % 1018,8 hPa 0,0 l/m 0 min 0 min 0 W/m 0,0 km/h (0 Bft) 100,00 %
10.10.2018 00:10 10,7 C 9,4 C 9,4 C 91 % 1018,8 hPa 0,0 l/m 0 min 0 min 0 W/m 0,0 km/h (0 Bft) 100,00 %
10.10.2018 00:12 10,6 C 9,4 C 8,9 C 91 % 1018,7 hPa 0,0 l/m 0 min 0 min 0 W/m 0,0 km/h (0 Bft) 97,87 %
10.10.2018 00:14 10,6 C 10,0 C 8,9 C 91 % 1018,8 hPa 0,0 l/m 0 min 0 min 0 W/m 0,0 km/h (0 Bft) 97,87 %
10.10.2018 00:16 10,6 C 9,4 C 8,9 C 91 % 1018,8 hPa 0,0 l/m 0 min 0 min 0 W/m 0,0 km/h (0 Bft) 100,00 %
10.10.2018 00:18 10,6 C 10,0 C 8,9 C 91 % 1018,8 hPa 0,0 l/m 0 min 0 min 0 W/m 0,0 km/h (0 Bft) 100,00 %
10.10.2018 00:20 10,6 C 10,0 C 8,9 C 91 % 1018,7 hPa 0,0 l/m 0 min 0 min 0 W/m 0,0 km/h (0 Bft) 100,00 %
10.10.2018 00:22 10,6 C 10,0 C 8,9 C 92 % 1018,7 hPa 0,0 l/m 0 min 0 min 0 W/m 3,2 km/h (1 Bft) 97,14 %
10.10.2018 00:24 10,6 C 10,6 C 9,4 C 92 % 1018,7 hPa 0,0 l/m 0 min 0 min 0 W/m 3,2 km/h (1 Bft) 97,87 %
10.10.2018 00:26 10,6 C 10,6 C 9,4 C 92 % 1018,7 hPa 0,0 l/m 0 min 0 min 0 W/m 3,2 km/h (1 Bft) 97,87 %
10.10.2018 00:28 10,6 C 10,6 C 9,4 C 92 % 1018,7 hPa 0,0 l/m 0 min 0 min 0 W/m 3,2 km/h (1 Bft) 97,83 %
10.10.2018 00:30 10,6 C 10,6 C 9,4 C 92 % 1018,7 hPa 0,0 l/m 0 min 0 min 0 W/m 3,2 km/h (1 Bft) 95,74 %
10.10.2018 00:32 10,6 C 10,6 C 9,4 C 92 % 1018,7 hPa 0,0 l/m 0 min 0 min 0 W/m 3,2 km/h (1 Bft) 93,62 %
10.10.2018 00:34 10,7 C 10,6 C 9,4 C 93 % 1018,7 hPa 0,0 l/m 0 min 0 min 0 W/m 0,0 km/h (0 Bft) 97,87 %
10.10.2018 00:38 10,8 C 10,6 C 10,0 C 93 % 1018,7 hPa 0,0 l/m 0 min 0 min 0 W/m 0,0 km/h (0 Bft) 97,87 %
10.10.2018 00:40 10,8 C 11,1 C 10,0 C 94 % 1018,7 hPa 0,0 l/m 0 min 0 min 0 W/m 3,2 km/h (1 Bft) 97,83 %
10.10.2018 00:42 10,9 C 11,1 C 10,0 C 94 % 1018,6 hPa 0,0 l/m 0 min 0 min 0 W/m 0,0 km/h (0 Bft) 97,87 %
10.10.2018 00:44 10,9 C 11,1 C 10,0 C 94 % 1018,6 hPa 0,0 l/m 0 min 0 min 0 W/m 0,0 km/h (0 Bft) 97,87 %
10.10.2018 00:46 10,9 C 11,1 C 10,0 C 94 % 1018,5 hPa 0,0 l/m 0 min 0 min 0 W/m 0,0 km/h (0 Bft) 97,87 %
10.10.2018 00:48 11,0 C 11,1 C 10,0 C 94 % 1018,6 hPa 0,0 l/m 0 min 0 min 0 W/m 0,0 km/h (0 Bft) 97,87 %
10.10.2018 00:50 11,1 C 11,1 C 10,0 C 94 % 1018,6 hPa 0,0 l/m 0 min 0 min 0 W/m 0,0 km/h (0 Bft) 96,55 %
10.10.2018 00:52 11,1 C 11,1 C 10,0 C 94 % 1018,6 hPa 0,0 l/m 0 min 0 min 0 W/m 0,0 km/h (0 Bft) 94,29 %
10.10.2018 00:54 11,1 C 11,1 C 10,0 C 95 % 1018,6 hPa 0,0 l/m 0 min 0 min 0 W/m 0,0 km/h (0 Bft) 97,87 %
10.10.2018 00:56 11,2 C 11,1 C 10,0 C 95 % 1018,6 hPa 0,0 l/m 0 min 0 min 0 W/m 0,0 km/h (0 Bft) 95,74 %
10.10.2018 00:58 11,2 C 11,1 C 10,0 C 95 % 1018,6 hPa 0,0 l/m 0 min 0 min 0 W/m 0,0 km/h (0 Bft) 95,74 %
10.10.2018 01:00 11,3 C 11,1 C 10,0 C 95 % 1018,6 hPa 0,0 l/m 0 min 0 min 0 W/m 0,0 km/h (0 Bft) 95,74 %
10.10.2018 01:02 11,3 C 11,7 C 10,0 C 95 % 1018,7 hPa 0,0 l/m 0 min 0 min 0 W/m 0,0 km/h (0 Bft) 97,87 %
10.10.2018 01:04 11,3 C 11,7 C 10,0 C 95 % 1018,6 hPa 0,0 l/m 0 min 0 min 0 W/m 0,0 km/h (0 Bft) 95,65 %
10.10.2018 01:08 11,4 C 11,7 C 10,0 C 95 % 1018,7 hPa 0,0 l/m 0 min 0 min 0 W/m 3,2 km/h (1 Bft) 93,07 %
10.10.2018 01:10 11,4 C 11,7 C 10,0 C 95 % 1018,7 hPa 0,0 l/m 0 min 0 min 0 W/m 3,2 km/h (1 Bft) 93,48 %
10.10.2018 01:12 11,5 C 11,7 C 10,0 C 95 % 1018,7 hPa 0,0 l/m 0 min 0 min 0 W/m 3,2 km/h (1 Bft) 93,62 %
10.10.2018 01:14 11,5 C 11,7 C 10,0 C 95 % 1018,6 hPa 0,0 l/m 0 min 0 min 0 W/m 3,2 km/h (1 Bft) 93,62 %
10.10.2018 01:16 11,6 C 11,7 C 10,0 C 95 % 1018,6 hPa 0,0 l/m 0 min 0 min 0 W/m 3,2 km/h (1 Bft) 93,62 %
10.10.2018 01:18 11,6 C 11,7 C 10,0 C 96 % 1018,6 hPa 0,0 l/m 0 min 0 min 0 W/m 3,2 km/h (1 Bft) 91,49 %
10.10.2018 01:20 11,6 C 11,7 C 10,0 C 96 % 1018,6 hPa 0,0 l/m 0 min 0 min 0 W/m 3,2 km/h (1 Bft) 95,74 %
10.10.2018 01:22 11,7 C 11,7 C 10,0 C 96 % 1018,6 hPa 0,0 l/m 0 min 0 min 0 W/m 3,2 km/h (1 Bft) 93,62 %
10.10.2018 01:24 11,7 C 11,7 C 10,0 C 96 % 1018,6 hPa 0,0 l/m 0 min 0 min 0 W/m 0,0 km/h (0 Bft) 95,74 %
10.10.2018 01:26 11,7 C 11,7 C 10,0 C 96 % 1018,6 hPa 0,0 l/m 0 min 0 min 0 W/m 0,0 km/h (0 Bft) 95,74 %
10.10.2018 01:28 11,7 C 11,7 C 10,0 C 96 % 1018,7 hPa 0,0 l/m 0 min 0 min 0 W/m 3,2 km/h (1 Bft) 93,62 %
10.10.2018 01:30 11,7 C 11,7 C 10,0 C 96 % 1018,7 hPa 0,0 l/m 0 min 0 min 0 W/m 6,4 km/h (2 Bft) 93,62 %
10.10.2018 01:32 11,7 C 11,7 C 10,0 C 96 % 1018,7 hPa 0,0 l/m 0 min 0 min 0 W/m 6,4 km/h (2 Bft) 93,48 %
10.10.2018 01:34 11,8 C 11,7 C 10,6 C 96 % 1018,7 hPa 0,0 l/m 0 min 0 min 0 W/m 6,4 km/h (2 Bft) 95,74 %
10.10.2018 01:38 11,8 C 11,7 C 10,6 C 96 % 1018,7 hPa 0,0 l/m 0 min 0 min 0 W/m 9,7 km/h (2 Bft) 93,62 %
10.10.2018 01:40 11,8 C 11,7 C 10,6 C 96 % 1018,7 hPa 0,0 l/m 0 min 0 min 0 W/m 6,4 km/h (2 Bft) 95,74 %
10.10.2018 01:42 11,8 C 11,7 C 10,6 C 96 % 1018,6 hPa 0,0 l/m 0 min 0 min 0 W/m 6,4 km/h (2 Bft) 95,74 %
10.10.2018 01:44 11,8 C 11,7 C 10,6 C 96 % 1018,6 hPa 0,0 l/m 0 min 0 min 0 W/m 3,2 km/h (1 Bft) 93,48 %
10.10.2018 01:46 11,9 C 11,7 C 10,6 C 96 % 1018,6 hPa 0,0 l/m 0 min 0 min 0 W/m 6,4 km/h (2 Bft) 95,74 %
10.10.2018 01:48 11,9 C 11,7 C 10,6 C 96 % 1018,6 hPa 0,0 l/m 0 min 0 min 0 W/m 3,2 km/h (1 Bft) 97,87 %
10.10.2018 01:50 11,9 C 11,7 C 10,6 C 96 % 1018,5 hPa 0,0 l/m 0 min 0 min 0 W/m 3,2 km/h (1 Bft) 93,62 %
10.10.2018 01:52 11,9 C 11,7 C 10,6 C 96 % 1018,6 hPa 0,0 l/m 0 min 0 min 0 W/m 3,2 km/h (1 Bft) 100,00 %
10.10.2018 01:54 11,9 C 11,7 C 10,6 C 96 % 1018,6 hPa 0,0 l/m 0 min 0 min 0 W/m 6,4 km/h (2 Bft) 100,00 %
10.10.2018 01:56 11,9 C 11,7 C 10,6 C 96 % 1018,5 hPa 0,0 l/m 0 min 0 min 0 W/m 3,2 km/h (1 Bft) 100,00 %
10.10.2018 01:58 11,9 C 11,7 C 10,6 C 96 % 1018,5 hPa 0,0 l/m 0 min 0 min 0 W/m 6,4 km/h (2 Bft) 97,87 %
10.10.2018 02:00 11,9 C 11,7 C 10,6 C 96 % 1018,5 hPa 0,0 l/m 0 min 0 min 0 W/m 3,2 km/h (1 Bft) 100,00 %
10.10.2018 02:02 11,9 C 11,7 C 10,6 C 96 % 1018,5 hPa 0,0 l/m 0 min 0 min 0 W/m 3,2 km/h (1 Bft) 97,87 %
10.10.2018 02:04 11,9 C 11,1 C 10,6 C 96 % 1018,6 hPa 0,0 l/m 0 min 0 min 0 W/m 0,0 km/h (0 Bft) 100,00 %
10.10.2018 02:08 11,9 C 11,1 C 10,6 C 96 % 1018,5 hPa 0,0 l/m 0 min 0 min 0 W/m 3,2 km/h (1 Bft) 100,00 %
10.10.2018 02:10 11,9 C 11,1 C 10,6 C 96 % 1018,5 hPa 0,0 l/m 0 min 0 min 0 W/m 0,0 km/h (0 Bft) 100,00 %
10.10.2018 02:12 11,9 C 11,1 C 10,6 C 96 % 1018,6 hPa 0,0 l/m 0 min 0 min 0 W/m 3,2 km/h (1 Bft) 100,00 %
10.10.2018 02:14 11,9 C 11,1 C 10,6 C 96 % 1018,5 hPa 0,0 l/m 0 min 0 min 0 W/m 0,0 km/h (0 Bft) 100,00 %
10.10.2018 02:16 11,9 C 11,1 C 10,6 C 96 % 1018,5 hPa 0,0 l/m 0 min 0 min 0 W/m 3,2 km/h (1 Bft) 100,00 %
10.10.2018 02:18 11,9 C 11,1 C 10,6 C 96 % 1018,5 hPa 0,0 l/m 0 min 0 min 0 W/m 3,2 km/h (1 Bft) 100,00 %
10.10.2018 02:20 11,8 C 11,1 C 10,6 C 96 % 1018,4 hPa 0,0 l/m 0 min 0 min 0 W/m 3,2 km/h (1 Bft) 100,00 %
10.10.2018 02:22 11,8 C 11,1 C 10,6 C 96 % 1018,4 hPa 0,0 l/m 0 min 0 min 0 W/m 3,2 km/h (1 Bft) 100,00 %
10.10.2018 02:24 11,8 C 11,1 C 10,6 C 96 % 1018,4 hPa 0,0 l/m 0 min 0 min 0 W/m 3,2 km/h (1 Bft) 100,00 %
10.10.2018 02:26 11,8 C 11,1 C 10,6 C 96 % 1018,5 hPa 0,0 l/m 0 min 0 min 0 W/m 0,0 km/h (0 Bft) 100,00 %
10.10.2018 02:28 11,8 C 11,1 C 10,6 C 96 % 1018,4 hPa 0,0 l/m 0 min 0 min 0 W/m 3,2 km/h (1 Bft) 100,00 %
10.10.2018 02:30 11,8 C 11,1 C 10,6 C 96 % 1018,4 hPa 0,0 l/m 0 min 0 min 0 W/m 3,2 km/h (1 Bft) 100,00 %
10.10.2018 02:32 11,8 C 11,1 C 10,6 C 96 % 1018,5 hPa 0,0 l/m 0 min 0 min 0 W/m 3,2 km/h (1 Bft) 100,00 %
10.10.2018 02:34 11,8 C 11,1 C 10,0 C 96 % 1018,4 hPa 0,0 l/m 0 min 0 min 0 W/m 3,2 km/h (1 Bft) 100,00 %
10.10.2018 02:38 11,8 C 11,1 C 10,0 C 96 % 1018,5 hPa 0,0 l/m 0 min 0 min 0 W/m 0,0 km/h (0 Bft) 100,00 %
10.10.2018 02:40 11,8 C 11,1 C 10,0 C 96 % 1018,5 hPa 0,0 l/m 0 min 0 min 0 W/m 0,0 km/h (0 Bft) 100,00 %
10.10.2018 02:42 11,7 C 11,1 C 10,0 C 96 % 1018,5 hPa 0,0 l/m 0 min 0 min 0 W/m 0,0 km/h (0 Bft) 100,00 %
10.10.2018 02:44 11,7 C 10,6 C 10,0 C 96 % 1018,4 hPa 0,0 l/m 0 min 0 min 0 W/m 0,0 km/h (0 Bft) 100,00 %
10.10.2018 02:46 11,7 C 10,6 C 10,0 C 96 % 1018,4 hPa 0,0 l/m 0 min 0 min 0 W/m 0,0 km/h (0 Bft) 100,00 %
10.10.2018 02:48 11,7 C 10,6 C 10,0 C 96 % 1018,4 hPa 0,0 l/m 0 min 0 min 0 W/m 0,0 km/h (0 Bft) 100,00 %
10.10.2018 02:50 11,7 C 10,6 C 10,0 C 96 % 1018,6 hPa 0,0 l/m 0 min 0 min 0 W/m 3,2 km/h (1 Bft) 100,00 %
10.10.2018 02:52 11,7 C 10,6 C 10,0 C 96 % 1018,5 hPa 0,0 l/m 0 min 0 min 0 W/m 3,2 km/h (1 Bft) 95,83 %
10.10.2018 02:54 11,7 C 10,6 C 10,0 C 96 % 1018,6 hPa 0,0 l/m 0 min 0 min 0 W/m 3,2 km/h (1 Bft) 100,00 %
10.10.2018 02:56 11,7 C 10,6 C 10,0 C 96 % 1018,5 hPa 0,0 l/m 0 min 0 min 0 W/m 3,2 km/h (1 Bft) 100,00 %
10.10.2018 02:58 11,6 C 11,1 C 10,0 C 96 % 1018,4 hPa 0,0 l/m 0 min 0 min 0 W/m 3,2 km/h (1 Bft) 100,00 %
10.10.2018 03:00 11,6 C 10,6 C 10,0 C 96 % 1018,5 hPa 0,0 l/m 0 min 0 min 0 W/m 6,4 km/h (2 Bft) 97,87 %
10.10.2018 03:02 11,6 C 11,1 C 10,0 C 96 % 1018,4 hPa 0,0 l/m 0 min 0 min 0 W/m 6,4 km/h (2 Bft) 100,00 %
10.10.2018 03:04 11,6 C 11,1 C 10,0 C 96 % 1018,5 hPa 0,0 l/m 0 min 0 min 0 W/m 6,4 km/h (2 Bft) 97,87 %
10.10.2018 03:08 11,6 C 11,1 C 10,0 C 96 % 1018,5 hPa 0,0 l/m 0 min 0 min 0 W/m 3,2 km/h (1 Bft) 100,00 %
10.10.2018 03:10 11,6 C 11,1 C 10,0 C 96 % 1018,4 hPa 0,0 l/m 0 min 0 min 0 W/m 3,2 km/h (1 Bft) 100,00 %
10.10.2018 03:12 11,6 C 10,6 C 10,0 C 96 % 1018,3 hPa 0,0 l/m 0 min 0 min 0 W/m 3,2 km/h (1 Bft) 100,00 %
10.10.2018 03:14 11,5 C 11,1 C 10,0 C 96 % 1018,3 hPa 0,0 l/m 0 min 0 min 0 W/m 3,2 km/h (1 Bft) 100,00 %
10.10.2018 03:16 11,5 C 10,6 C 10,0 C 96 % 1018,3 hPa 0,0 l/m 0 min 0 min 0 W/m 3,2 km/h (1 Bft) 100,00 %
10.10.2018 03:18 11,5 C 11,1 C 10,0 C 96 % 1018,2 hPa 0,0 l/m 0 min 0 min 0 W/m 3,2 km/h (1 Bft) 100,00 %
10.10.2018 03:20 11,5 C 10,6 C 10,0 C 96 % 1018,2 hPa 0,0 l/m 0 min 0 min 0 W/m 3,2 km/h (1 Bft) 100,00 %
10.10.2018 03:22 11,5 C 10,6 C 10,0 C 96 % 1018,2 hPa 0,0 l/m 0 min 0 min 0 W/m 3,2 km/h (1 Bft) 100,00 %
10.10.2018 03:24 11,5 C 10,6 C 10,0 C 96 % 1018,2 hPa 0,0 l/m 0 min 0 min 0 W/m 3,2 km/h (1 Bft) 100,00 %
10.10.2018 03:26 11,5 C 10,6 C 10,0 C 96 % 1018,2 hPa 0,0 l/m 0 min 0 min 0 W/m 3,2 km/h (1 Bft) 97,87 %
10.10.2018 03:28 11,5 C 11,1 C 10,0 C 96 % 1018,1 hPa 0,0 l/m 0 min 0 min 0 W/m 6,4 km/h (2 Bft) 100,00 %
10.10.2018 03:30 11,4 C 11,1 C 10,0 C 96 % 1018,1 hPa 0,0 l/m 0 min 0 min 0 W/m 3,2 km/h (1 Bft) 97,87 %
10.10.2018 03:32 11,5 C 10,6 C 10,0 C 96 % 1018,2 hPa 0,0 l/m 0 min 0 min 0 W/m 0,0 km/h (0 Bft) 97,87 %
10.10.2018 03:34 11,4 C 10,6 C 10,0 C 96 % 1018,2 hPa 0,0 l/m 0 min 0 min 0 W/m 6,4 km/h (2 Bft) 95,74 %
10.10.2018 03:38 11,4 C 10,6 C 10,0 C 96 % 1018,2 hPa 0,0 l/m 0 min 0 min 0 W/m 3,2 km/h (1 Bft) 97,87 %
10.10.2018 03:40 11,4 C 10,6 C 10,0 C 96 % 1018,1 hPa 0,0 l/m 0 min 0 min 0 W/m 6,4 km/h (2 Bft) 100,00 %
10.10.2018 03:42 11,4 C 10,6 C 10,0 C 96 % 1018,1 hPa 0,0 l/m 0 min 0 min 0 W/m 3,2 km/h (1 Bft) 97,87 %
10.10.2018 03:44 11,4 C 10,6 C 10,0 C 96 % 1018,1 hPa 0,0 l/m 0 min 0 min 0 W/m 0,0 km/h (0 Bft) 91,49 %
10.10.2018 03:46 11,4 C 10,6 C 10,0 C 96 % 1018,1 hPa 0,0 l/m 0 min 0 min 0 W/m 0,0 km/h (0 Bft) 95,74 %
10.10.2018 03:48 11,4 C 10,6 C 10,0 C 96 % 1018,0 hPa 0,0 l/m 0 min 0 min 0 W/m 3,2 km/h (1 Bft) 95,74 %
10.10.2018 03:50 11,4 C 10,6 C 10,0 C 96 % 1018,0 hPa 0,0 l/m 0 min 0 min 0 W/m 3,2 km/h (1 Bft) 95,74 %
10.10.2018 03:52 11,4 C 10,6 C 10,0 C 96 % 1018,0 hPa 0,0 l/m 0 min 0 min 0 W/m 3,2 km/h (1 Bft) 91,30 %
10.10.2018 03:54 11,4 C 10,6 C 10,0 C 97 % 1018,0 hPa 0,0 l/m 0 min 0 min 0 W/m 0,0 km/h (0 Bft) 93,62 %
10.10.2018 03:56 11,4 C 10,6 C 10,0 C 97 % 1018,0 hPa 0,0 l/m 0 min 0 min 0 W/m 0,0 km/h (0 Bft) 95,74 %
10.10.2018 03:58 11,4 C 10,6 C 10,0 C 97 % 1018,0 hPa 0,0 l/m 0 min 0 min 0 W/m 0,0 km/h (0 Bft) 95,74 %
10.10.2018 04:00 11,3 C 10,6 C 10,0 C 97 % 1018,0 hPa 0,0 l/m 0 min 0 min 0 W/m 0,0 km/h (0 Bft) 93,62 %
10.10.2018 04:02 11,3 C 10,6 C 10,0 C 96 % 1018,1 hPa 0,0 l/m 0 min 0 min 0 W/m 3,2 km/h (1 Bft) 94,74 %
10.10.2018 04:07 11,3 C 10,6 C 10,0 C 96 % 1018,0 hPa 0,0 l/m 0 min 0 min 0 W/m 0,0 km/h (0 Bft) 96,43 %
10.10.2018 04:08 11,3 C 10,6 C 10,0 C 96 % 1018,0 hPa 0,0 l/m 0 min 0 min 0 W/m 0,0 km/h (0 Bft) 100,00 %
10.10.2018 04:10 11,3 C 10,6 C 10,0 C 96 % 1018,0 hPa 0,0 l/m 0 min 0 min 0 W/m 0,0 km/h (0 Bft) 93,75 %
10.10.2018 04:12 11,3 C 10,6 C 10,0 C 96 % 1018,1 hPa 0,0 l/m 0 min 0 min 0 W/m 0,0 km/h (0 Bft) 91,49 %
10.10.2018 04:14 11,2 C 10,6 C 9,4 C 96 % 1018,1 hPa 0,0 l/m 0 min 0 min 0 W/m 0,0 km/h (0 Bft) 91,30 %
10.10.2018 04:16 11,2 C 10,0 C 9,4 C 96 % 1018,1 hPa 0,0 l/m 0 min 0 min 0 W/m 0,0 km/h (0 Bft) 95,74 %
10.10.2018 04:18 11,2 C 10,0 C 9,4 C 96 % 1018,0 hPa 0,0 l/m 0 min 0 min 0 W/m 0,0 km/h (0 Bft) 93,62 %
10.10.2018 04:20 11,2 C 10,6 C 9,4 C 96 % 1018,0 hPa 0,0 l/m 0 min 0 min 0 W/m 0,0 km/h (0 Bft) 93,62 %
10.10.2018 04:22 11,2 C 10,0 C 9,4 C 96 % 1018,1 hPa 0,0 l/m 0 min 0 min 0 W/m 0,0 km/h (0 Bft) 93,75 %
10.10.2018 04:24 11,2 C 10,0 C 9,4 C 96 % 1018,0 hPa 0,0 l/m 0 min 0 min 0 W/m 3,2 km/h (1 Bft) 93,62 %
10.10.2018 04:26 11,1 C 10,0 C 9,4 C 96 % 1018,0 hPa 0,0 l/m 0 min 0 min 0 W/m 3,2 km/h (1 Bft) 91,30 %
10.10.2018 04:28 11,1 C 10,0 C 9,4 C 96 % 1017,9 hPa 0,0 l/m 0 min 0 min 0 W/m 0,0 km/h (0 Bft) 95,74 %
10.10.2018 04:30 11,1 C 10,0 C 9,4 C 96 % 1017,9 hPa 0,0 l/m 0 min 0 min 0 W/m 0,0 km/h (0 Bft) 95,74 %
10.10.2018 04:32 11,1 C 10,0 C 9,4 C 96 % 1018,0 hPa 0,0 l/m 0 min 0 min 0 W/m 0,0 km/h (0 Bft) 95,74 %
10.10.2018 04:34 11,1 C 10,0 C 9,4 C 96 % 1018,0 hPa 0,0 l/m 0 min 0 min 0 W/m 0,0 km/h (0 Bft) 97,87 %
10.10.2018 04:38 11,0 C 10,0 C 9,4 C 96 % 1018,0 hPa 0,0 l/m 0 min 0 min 0 W/m 0,0 km/h (0 Bft) 97,87 %
10.10.2018 04:40 11,0 C 10,0 C 9,4 C 96 % 1018,0 hPa 0,0 l/m 0 min 0 min 0 W/m 0,0 km/h (0 Bft) 95,74 %
10.10.2018 04:42 10,9 C 10,0 C 9,4 C 96 % 1018,0 hPa 0,0 l/m 0 min 0 min 0 W/m 0,0 km/h (0 Bft) 97,87 %
10.10.2018 04:44 10,9 C 10,0 C 9,4 C 96 % 1018,0 hPa 0,0 l/m 0 min 0 min 0 W/m 0,0 km/h (0 Bft) 97,87 %
10.10.2018 04:46 10,9 C 9,4 C 9,4 C 96 % 1018,0 hPa 0,0 l/m 0 min 0 min 0 W/m 0,0 km/h (0 Bft) 97,87 %
10.10.2018 04:48 10,9 C 9,4 C 9,4 C 96 % 1018,0 hPa 0,0 l/m 0 min 0 min 0 W/m 3,2 km/h (1 Bft) 95,65 %
10.10.2018 04:50 10,8 C 9,4 C 9,4 C 96 % 1018,0 hPa 0,0 l/m 0 min 0 min 0 W/m 0,0 km/h (0 Bft) 97,87 %
10.10.2018 04:52 10,8 C 10,0 C 9,4 C 96 % 1018,0 hPa 0,0 l/m 0 min 0 min 0 W/m 3,2 km/h (1 Bft) 97,87 %
10.10.2018 04:54 10,8 C 9,4 C 9,4 C 96 % 1018,0 hPa 0,0 l/m 0 min 0 min 0 W/m 3,2 km/h (1 Bft) 97,22 %
10.10.2018 04:56 10,8 C 9,4 C 9,4 C 96 % 1018,0 hPa 0,0 l/m 0 min 0 min 0 W/m 0,0 km/h (0 Bft) 95,65 %
10.10.2018 04:58 10,7 C 10,0 C 9,4 C 96 % 1018,0 hPa 0,0 l/m 0 min 0 min 0 W/m 3,2 km/h (1 Bft) 97,87 %
10.10.2018 05:00 10,7 C 9,4 C 9,4 C 96 % 1018,0 hPa 0,0 l/m 0 min 0 min 0 W/m 3,2 km/h (1 Bft) 97,87 %
10.10.2018 05:02 10,7 C 9,4 C 9,4 C 96 % 1017,9 hPa 0,0 l/m 0 min 0 min 0 W/m 0,0 km/h (0 Bft) 97,87 %
10.10.2018 05:04 10,7 C 9,4 C 9,4 C 96 % 1017,9 hPa 0,0 l/m 0 min 0 min 0 W/m 0,0 km/h (0 Bft) 100,00 %
10.10.2018 05:05 10,6 C 9,4 C 9,4 C 96 % 1018,0 hPa 0,0 l/m 0 min 0 min 0 W/m 0,0 km/h (0 Bft) 100,00 %
10.10.2018 05:10 10,6 C 8,9 C 8,9 C 96 % 1017,9 hPa 0,0 l/m 0 min 0 min 0 W/m 0,0 km/h (0 Bft) 100,00 %
10.10.2018 05:12 10,5 C 8,9 C 8,9 C 96 % 1017,9 hPa 0,0 l/m 0 min 0 min 0 W/m 0,0 km/h (0 Bft) 100,00 %
10.10.2018 05:15 10,4 C 8,9 C 8,9 C 96 % 1017,9 hPa 0,0 l/m 0 min 0 min 0 W/m 0,0 km/h (0 Bft) 44,74 %
10.10.2018 05:22 10,2 C 8,3 C 8,3 C 96 % 1017,8 hPa 0,0 l/m 0 min 0 min 0 W/m 0,0 km/h (0 Bft) 100,00 %
10.10.2018 05:24 10,2 C 8,3 C 8,3 C 96 % 1017,8 hPa 0,0 l/m 0 min 0 min 0 W/m 0,0 km/h (0 Bft) 100,00 %
10.10.2018 05:26 10,2 C 8,3 C 8,3 C 96 % 1017,8 hPa 0,0 l/m 0 min 0 min 0 W/m 0,0 km/h (0 Bft) 100,00 %
10.10.2018 05:28 10,1 C 8,3 C 8,3 C 96 % 1017,8 hPa 0,0 l/m 0 min 0 min 0 W/m 0,0 km/h (0 Bft) 100,00 %
10.10.2018 05:30 10,0 C 8,3 C 8,3 C 96 % 1017,8 hPa 0,0 l/m 0 min 0 min 0 W/m 0,0 km/h (0 Bft) 100,00 %
10.10.2018 05:32 9,9 C 8,3 C 8,3 C 96 % 1017,9 hPa 0,0 l/m 0 min 0 min 0 W/m 0,0 km/h (0 Bft) 100,00 %
10.10.2018 05:34 9,9 C 8,3 C 8,3 C 96 % 1017,9 hPa 0,0 l/m 0 min 0 min 0 W/m 0,0 km/h (0 Bft) 97,83 %
10.10.2018 05:38 9,8 C 8,3 C 7,8 C 96 % 1017,9 hPa 0,0 l/m 0 min 0 min 0 W/m 0,0 km/h (0 Bft) 100,00 %
10.10.2018 05:40 9,8 C 8,3 C 7,8 C 96 % 1017,9 hPa 0,0 l/m 0 min 0 min 0 W/m 0,0 km/h (0 Bft) 100,00 %
10.10.2018 05:42 9,7 C 8,3 C 7,8 C 96 % 1017,9 hPa 0,0 l/m 0 min 0 min 0 W/m 0,0 km/h (0 Bft) 100,00 %
10.10.2018 05:44 9,7 C 7,8 C 7,8 C 96 % 1017,9 hPa 0,0 l/m 0 min 0 min 0 W/m 0,0 km/h (0 Bft) 100,00 %
10.10.2018 05:46 9,6 C 7,8 C 7,8 C 96 % 1017,9 hPa 0,0 l/m 0 min 0 min 0 W/m 0,0 km/h (0 Bft) 100,00 %
10.10.2018 05:48 9,6 C 7,8 C 7,8 C 96 % 1017,9 hPa 0,0 l/m 0 min 0 min 0 W/m 0,0 km/h (0 Bft) 100,00 %
10.10.2018 05:50 9,5 C 7,8 C 7,8 C 96 % 1017,8 hPa 0,0 l/m 0 min 0 min 0 W/m 0,0 km/h (0 Bft) 97,87 %
10.10.2018 05:52 9,4 C 7,8 C 7,8 C 96 % 1017,8 hPa 0,0 l/m 0 min 0 min 0 W/m 0,0 km/h (0 Bft) 100,00 %
10.10.2018 05:54 9,4 C 7,8 C 7,8 C 96 % 1017,8 hPa 0,0 l/m 0 min 0 min 0 W/m 0,0 km/h (0 Bft) 100,00 %
10.10.2018 05:56 9,4 C 7,8 C 7,8 C 96 % 1017,8 hPa 0,0 l/m 0 min 0 min 0 W/m 0,0 km/h (0 Bft) 100,00 %
10.10.2018 05:58 9,3 C 7,8 C 7,8 C 96 % 1017,8 hPa 0,0 l/m 0 min 0 min 0 W/m 0,0 km/h (0 Bft) 97,87 %
10.10.2018 06:00 9,3 C 7,8 C 7,8 C 96 % 1017,8 hPa 0,0 l/m 0 min 0 min 0 W/m 0,0 km/h (0 Bft) 100,00 %
10.10.2018 06:02 9,3 C 7,8 C 7,8 C 96 % 1017,7 hPa 0,0 l/m 0 min 0 min 0 W/m 0,0 km/h (0 Bft) 96,08 %
10.10.2018 06:04 9,2 C 7,8 C 7,8 C 96 % 1017,7 hPa 0,0 l/m 0 min 0 min 0 W/m 0,0 km/h (0 Bft) 100,00 %
10.10.2018 06:07 9,2 C 7,8 C 7,8 C 96 % 1017,7 hPa 0,0 l/m 0 min 0 min 0 W/m 0,0 km/h (0 Bft) 100,00 %
10.10.2018 06:08 9,2 C 7,8 C 7,8 C 96 % 1017,7 hPa 0,0 l/m 0 min 0 min 0 W/m 0,0 km/h (0 Bft) 100,00 %
10.10.2018 06:10 9,1 C 7,8 C 7,8 C 96 % 1017,6 hPa 0,0 l/m 0 min 0 min 0 W/m 0,0 km/h (0 Bft) 97,83 %
10.10.2018 06:12 9,1 C 7,8 C 7,8 C 96 % 1017,7 hPa 0,0 l/m 0 min 0 min 0 W/m 0,0 km/h (0 Bft) 97,87 %
10.10.2018 06:14 9,1 C 7,8 C 7,8 C 96 % 1017,7 hPa 0,0 l/m 0 min 0 min 0 W/m 0,0 km/h (0 Bft) 100,00 %
10.10.2018 06:16 9,0 C 7,8 C 7,8 C 96 % 1017,6 hPa 0,0 l/m 0 min 0 min 0 W/m 0,0 km/h (0 Bft) 97,87 %
10.10.2018 06:18 9,0 C 7,8 C 7,2 C 95 % 1017,6 hPa 0,0 l/m 0 min 0 min 0 W/m 0,0 km/h (0 Bft) 97,87 %
10.10.2018 06:20 8,9 C 7,8 C 7,2 C 95 % 1017,7 hPa 0,0 l/m 0 min 0 min 0 W/m 0,0 km/h (0 Bft) 95,74 %
10.10.2018 06:22 8,9 C 7,8 C 7,2 C 95 % 1017,6 hPa 0,0 l/m 0 min 0 min 0 W/m 0,0 km/h (0 Bft) 97,83 %
10.10.2018 06:24 8,9 C 7,8 C 7,2 C 95 % 1017,6 hPa 0,0 l/m 0 min 0 min 0 W/m 0,0 km/h (0 Bft) 97,87 %
10.10.2018 06:26 8,8 C 7,8 C 7,2 C 95 % 1017,7 hPa 0,0 l/m 0 min 0 min 0 W/m 0,0 km/h (0 Bft) 97,87 %
10.10.2018 06:28 8,8 C 7,8 C 7,2 C 95 % 1017,7 hPa 0,0 l/m 0 min 0 min 0 W/m 0,0 km/h (0 Bft) 95,74 %
10.10.2018 06:30 8,8 C 7,8 C 7,2 C 95 % 1017,7 hPa 0,0 l/m 0 min 0 min 0 W/m 0,0 km/h (0 Bft) 97,87 %
10.10.2018 06:32 8,8 C 7,2 C 7,2 C 95 % 1017,7 hPa 0,0 l/m 0 min 0 min 0 W/m 0,0 km/h (0 Bft) 95,74 %
10.10.2018 06:34 8,7 C 7,8 C 7,2 C 95 % 1017,6 hPa 0,0 l/m 0 min 0 min 0 W/m 0,0 km/h (0 Bft) 97,83 %
10.10.2018 06:38 8,7 C 7,2 C 7,2 C 95 % 1017,7 hPa 0,0 l/m 0 min 0 min 0 W/m 0,0 km/h (0 Bft) 95,74 %
10.10.2018 06:40 8,7 C 7,2 C 7,2 C 95 % 1017,7 hPa 0,0 l/m 0 min 0 min 0 W/m 0,0 km/h (0 Bft) 95,74 %
10.10.2018 06:42 8,7 C 7,2 C 7,2 C 95 % 1017,8 hPa 0,0 l/m 0 min 0 min 0 W/m 0,0 km/h (0 Bft) 96,23 %
10.10.2018 06:44 8,6 C 7,2 C 7,2 C 95 % 1017,8 hPa 0,0 l/m 0 min 0 min 0 W/m 0,0 km/h (0 Bft) 95,65 %
10.10.2018 06:46 8,6 C 7,2 C 7,2 C 95 % 1017,7 hPa 0,0 l/m 0 min 0 min 0 W/m 0,0 km/h (0 Bft) 93,62 %
10.10.2018 06:48 8,6 C 7,2 C 7,2 C 95 % 1017,7 hPa 0,0 l/m 0 min 0 min 0 W/m 0,0 km/h (0 Bft) 95,74 %
10.10.2018 06:50 8,6 C 7,2 C 7,2 C 95 % 1017,6 hPa 0,0 l/m 0 min 0 min 0 W/m 0,0 km/h (0 Bft) 95,74 %
10.10.2018 06:52 8,5 C 7,2 C 7,2 C 95 % 1017,6 hPa 0,0 l/m 0 min 0 min 0 W/m 0,0 km/h (0 Bft) 95,74 %
10.10.2018 06:54 8,5 C 7,2 C 7,2 C 95 % 1017,7 hPa 0,0 l/m 0 min 0 min 0 W/m 0,0 km/h (0 Bft) 97,87 %
10.10.2018 06:56 8,4 C 7,2 C 7,2 C 95 % 1017,6 hPa 0,0 l/m 0 min 0 min 0 W/m 0,0 km/h (0 Bft) 97,83 %
10.10.2018 06:58 8,4 C 7,2 C 7,2 C 95 % 1017,6 hPa 0,0 l/m 0 min 0 min 0 W/m 0,0 km/h (0 Bft) 97,87 %
10.10.2018 07:00 8,4 C 7,2 C 7,2 C 95 % 1017,6 hPa 0,0 l/m 0 min 0 min 0 W/m 0,0 km/h (0 Bft) 97,87 %
10.10.2018 07:02 8,4 C 7,2 C 7,2 C 95 % 1017,6 hPa 0,0 l/m 0 min 0 min 0 W/m 0,0 km/h (0 Bft) 95,74 %
10.10.2018 07:04 8,4 C 7,2 C 7,2 C 95 % 1017,6 hPa 0,0 l/m 0 min 0 min 0 W/m 0,0 km/h (0 Bft) 95,74 %
10.10.2018 07:08 8,3 C 7,2 C 7,2 C 95 % 1017,6 hPa 0,0 l/m 0 min 0 min 0 W/m 0,0 km/h (0 Bft) 97,85 %
10.10.2018 07:10 8,3 C 7,2 C 7,2 C 95 % 1017,6 hPa 0,0 l/m 0 min 0 min 0 W/m 0,0 km/h (0 Bft) 97,87 %
10.10.2018 07:12 8,3 C 7,2 C 7,2 C 95 % 1017,6 hPa 0,0 l/m 0 min 0 min 0 W/m 0,0 km/h (0 Bft) 97,87 %
10.10.2018 07:14 8,3 C 7,2 C 7,2 C 95 % 1017,6 hPa 0,0 l/m 0 min 0 min 0 W/m 0,0 km/h (0 Bft) 97,87 %
10.10.2018 07:16 8,2 C 7,2 C 7,2 C 95 % 1017,6 hPa 0,0 l/m 0 min 0 min 0 W/m 0,0 km/h (0 Bft) 95,74 %
10.10.2018 07:18 8,2 C 7,2 C 7,2 C 95 % 1017,5 hPa 0,0 l/m 0 min 0 min 0 W/m 0,0 km/h (0 Bft) 97,87 %
10.10.2018 07:20 8,2 C 7,2 C 7,2 C 95 % 1017,5 hPa 0,0 l/m 0 min 0 min 0 W/m 0,0 km/h (0 Bft) 95,65 %
10.10.2018 07:22 8,2 C 7,2 C 7,2 C 95 % 1017,5 hPa 0,0 l/m 0 min 0 min 0 W/m 0,0 km/h (0 Bft) 95,74 %
10.10.2018 07:24 8,2 C 7,2 C 7,2 C 95 % 1017,6 hPa 0,0 l/m 0 min 0 min 0 W/m 0,0 km/h (0 Bft) 97,87 %
10.10.2018 07:26 8,2 C 7,2 C 7,2 C 95 % 1017,5 hPa 0,0 l/m 0 min 0 min 0 W/m 0,0 km/h (0 Bft) 100,00 %
10.10.2018 07:28 8,1 C 7,2 C 7,2 C 95 % 1017,6 hPa 0,0 l/m 0 min 0 min 0 W/m 0,0 km/h (0 Bft) 100,00 %
10.10.2018 07:30 8,1 C 7,2 C 7,2 C 95 % 1017,5 hPa 0,0 l/m 0 min 0 min 0 W/m 0,0 km/h (0 Bft) 97,83 %
10.10.2018 07:32 8,1 C 7,2 C 7,2 C 95 % 1017,6 hPa 0,0 l/m 0 min 0 min 0 W/m 0,0 km/h (0 Bft) 97,87 %
10.10.2018 07:34 8,1 C 6,7 C 7,2 C 95 % 1017,5 hPa 0,0 l/m 0 min 0 min 0 W/m 0,0 km/h (0 Bft) 100,00 %
10.10.2018 07:38 8,1 C 6,7 C 6,7 C 95 % 1017,5 hPa 0,0 l/m 0 min 0 min 0 W/m 0,0 km/h (0 Bft) 99,01 %
10.10.2018 07:40 8,0 C 7,2 C 6,7 C 95 % 1017,5 hPa 0,0 l/m 0 min 0 min 0 W/m 0,0 km/h (0 Bft) 100,00 %
10.10.2018 07:42 8,0 C 7,2 C 6,7 C 95 % 1017,4 hPa 0,0 l/m 0 min 0 min 0 W/m 0,0 km/h (0 Bft) 100,00 %
10.10.2018 07:44 8,0 C 7,2 C 6,7 C 95 % 1017,6 hPa 0,0 l/m 0 min 0 min 0 W/m 0,0 km/h (0 Bft) 97,87 %
10.10.2018 07:46 7,9 C 7,2 C 6,7 C 95 % 1017,5 hPa 0,0 l/m 0 min 0 min 0 W/m 0,0 km/h (0 Bft) 100,00 %
10.10.2018 07:48 7,9 C 7,2 C 6,7 C 95 % 1017,5 hPa 0,0 l/m 0 min 0 min 0 W/m 0,0 km/h (0 Bft) 100,00 %
10.10.2018 07:50 7,9 C 7,2 C 6,7 C 95 % 1017,6 hPa 0,0 l/m 0 min 0 min 5 W/m 0,0 km/h (0 Bft) 97,87 %
10.10.2018 07:52 7,9 C 7,2 C 6,7 C 95 % 1017,5 hPa 0,0 l/m 0 min 0 min 5 W/m 0,0 km/h (0 Bft) 100,00 %
10.10.2018 07:54 7,9 C 7,2 C 6,7 C 95 % 1017,5 hPa 0,0 l/m 0 min 0 min 5 W/m 0,0 km/h (0 Bft) 100,00 %
10.10.2018 07:56 7,9 C 7,2 C 6,7 C 95 % 1017,5 hPa 0,0 l/m 0 min 0 min 6 W/m 0,0 km/h (0 Bft) 100,00 %
10.10.2018 07:58 7,8 C 7,2 C 6,7 C 95 % 1017,6 hPa 0,0 l/m 0 min 0 min 7 W/m 0,0 km/h (0 Bft) 100,00 %
10.10.2018 08:00 7,8 C 7,2 C 6,7 C 95 % 1017,5 hPa 0,0 l/m 0 min 0 min 8 W/m 0,0 km/h (0 Bft) 100,00 %
10.10.2018 08:02 7,8 C 7,2 C 6,7 C 95 % 1017,4 hPa 0,0 l/m 0 min 0 min 9 W/m 0,0 km/h (0 Bft) 97,87 %
10.10.2018 08:04 7,8 C 7,2 C 6,7 C 95 % 1017,4 hPa 0,0 l/m 0 min 0 min 10 W/m 0,0 km/h (0 Bft) 100,00 %
10.10.2018 08:08 7,8 C 6,7 C 6,7 C 95 % 1017,4 hPa 0,0 l/m 0 min 0 min 11 W/m 0,0 km/h (0 Bft) 96,77 %
10.10.2018 08:10 7,8 C 6,7 C 6,7 C 95 % 1017,4 hPa 0,0 l/m 0 min 0 min 12 W/m 0,0 km/h (0 Bft) 97,87 %
10.10.2018 08:12 7,8 C 6,7 C 6,7 C 95 % 1017,4 hPa 0,0 l/m 0 min 0 min 12 W/m 0,0 km/h (0 Bft) 97,87 %
10.10.2018 08:14 7,7 C 6,7 C 6,7 C 95 % 1017,4 hPa 0,0 l/m 0 min 0 min 13 W/m 0,0 km/h (0 Bft) 97,87 %
10.10.2018 08:16 7,7 C 6,7 C 6,7 C 95 % 1017,4 hPa 0,0 l/m 0 min 0 min 14 W/m 0,0 km/h (0 Bft) 95,65 %
10.10.2018 08:18 7,7 C 6,7 C 6,7 C 95 % 1017,5 hPa 0,0 l/m 0 min 0 min 15 W/m 0,0 km/h (0 Bft) 95,74 %
10.10.2018 08:20 7,7 C 6,7 C 6,7 C 95 % 1017,5 hPa 0,0 l/m 0 min 0 min 16 W/m 0,0 km/h (0 Bft) 95,74 %
10.10.2018 08:22 7,7 C 7,2 C 6,7 C 95 % 1017,4 hPa 0,0 l/m 0 min 0 min 18 W/m 0,0 km/h (0 Bft) 97,87 %
10.10.2018 08:24 7,7 C 7,2 C 6,7 C 95 % 1017,4 hPa 0,0 l/m 0 min 0 min 18 W/m 0,0 km/h (0 Bft) 97,87 %
10.10.2018 08:26 7,7 C 7,2 C 6,7 C 95 % 1017,5 hPa 0,0 l/m 0 min 0 min 19 W/m 0,0 km/h (0 Bft) 97,87 %
10.10.2018 08:28 7,7 C 7,2 C 7,2 C 95 % 1017,5 hPa 0,0 l/m 0 min 0 min 19 W/m 0,0 km/h (0 Bft) 95,65 %
10.10.2018 08:30 7,7 C 7,2 C 7,2 C 95 % 1017,6 hPa 0,0 l/m 0 min 0 min 20 W/m 0,0 km/h (0 Bft) 93,62 %
10.10.2018 08:32 7,6 C 7,2 C 7,2 C 95 % 1017,6 hPa 0,0 l/m 0 min 0 min 21 W/m 0,0 km/h (0 Bft) 93,62 %
10.10.2018 08:34 7,6 C 7,2 C 7,2 C 96 % 1017,6 hPa 0,0 l/m 0 min 0 min 21 W/m 0,0 km/h (0 Bft) 95,74 %
10.10.2018 08:38 7,6 C 7,2 C 7,2 C 96 % 1017,6 hPa 0,0 l/m 0 min 0 min 22 W/m 0,0 km/h (0 Bft) 95,79 %
10.10.2018 08:40 7,6 C 7,2 C 7,2 C 95 % 1017,6 hPa 0,0 l/m 0 min 0 min 23 W/m 0,0 km/h (0 Bft) 94,29 %
10.10.2018 08:42 7,6 C 7,2 C 7,2 C 95 % 1017,6 hPa 0,0 l/m 0 min 0 min 25 W/m 0,0 km/h (0 Bft) 94,83 %
10.10.2018 08:44 7,6 C 7,2 C 7,2 C 95 % 1017,6 hPa 0,0 l/m 0 min 0 min 25 W/m 0,0 km/h (0 Bft) 95,74 %
10.10.2018 08:46 7,6 C 7,2 C 7,2 C 95 % 1017,6 hPa 0,0 l/m 0 min 0 min 25 W/m 0,0 km/h (0 Bft) 95,74 %
10.10.2018 08:48 7,6 C 7,2 C 7,2 C 95 % 1017,6 hPa 0,0 l/m 0 min 0 min 26 W/m 0,0 km/h (0 Bft) 95,74 %
10.10.2018 08:50 7,7 C 7,8 C 7,2 C 96 % 1017,6 hPa 0,0 l/m 0 min 0 min 26 W/m 0,0 km/h (0 Bft) 95,74 %
10.10.2018 08:52 7,7 C 7,8 C 7,2 C 96 % 1017,6 hPa 0,0 l/m 0 min 0 min 27 W/m 0,0 km/h (0 Bft) 95,65 %
10.10.2018 08:54 7,7 C 7,8 C 7,2 C 96 % 1017,6 hPa 0,0 l/m 0 min 0 min 28 W/m 3,2 km/h (1 Bft) 95,74 %
10.10.2018 08:56 7,7 C 7,8 C 7,2 C 96 % 1017,5 hPa 0,0 l/m 0 min 0 min 28 W/m 0,0 km/h (0 Bft) 95,74 %
10.10.2018 08:58 7,7 C 7,8 C 7,2 C 96 % 1017,5 hPa 0,0 l/m 0 min 0 min 29 W/m 0,0 km/h (0 Bft) 95,74 %
10.10.2018 09:00 7,7 C 7,8 C 7,2 C 96 % 1017,5 hPa 0,0 l/m 0 min 0 min 30 W/m 0,0 km/h (0 Bft) 95,74 %
10.10.2018 09:02 7,7 C 7,8 C 7,8 C 96 % 1017,5 hPa 0,0 l/m 0 min 0 min 30 W/m 0,0 km/h (0 Bft) 94,29 %
10.10.2018 09:04 7,8 C 8,3 C 7,8 C 96 % 1017,5 hPa 0,0 l/m 0 min 0 min 32 W/m 0,0 km/h (0 Bft) 96,55 %
10.10.2018 09:08 7,8 C 8,3 C 7,8 C 96 % 1017,5 hPa 0,0 l/m 0 min 0 min 31 W/m 0,0 km/h (0 Bft) 96,34 %
10.10.2018 09:10 7,9 C 8,3 C 7,8 C 96 % 1017,5 hPa 0,0 l/m 0 min 0 min 32 W/m 0,0 km/h (0 Bft) 98,31 %
10.10.2018 09:12 7,9 C 8,3 C 7,8 C 96 % 1017,5 hPa 0,0 l/m 0 min 0 min 33 W/m 0,0 km/h (0 Bft) 93,62 %
10.10.2018 09:14 8,0 C 8,3 C 7,8 C 96 % 1017,5 hPa 0,0 l/m 0 min 0 min 33 W/m 0,0 km/h (0 Bft) 97,83 %
10.10.2018 09:16 8,1 C 8,9 C 7,8 C 96 % 1017,5 hPa 0,0 l/m 0 min 0 min 35 W/m 0,0 km/h (0 Bft) 100,00 %
10.10.2018 09:18 8,1 C 8,9 C 8,3 C 96 % 1017,5 hPa 0,0 l/m 0 min 0 min 35 W/m 0,0 km/h (0 Bft) 97,22 %
10.10.2018 09:20 8,2 C 8,9 C 8,3 C 96 % 1017,5 hPa 0,0 l/m 0 min 0 min 36 W/m 0,0 km/h (0 Bft) 100,00 %
10.10.2018 09:22 8,2 C 8,9 C 8,3 C 97 % 1017,5 hPa 0,0 l/m 0 min 0 min 37 W/m 0,0 km/h (0 Bft) 97,87 %
10.10.2018 09:24 8,3 C 8,9 C 8,3 C 97 % 1017,6 hPa 0,0 l/m 0 min 0 min 37 W/m 0,0 km/h (0 Bft) 97,87 %
10.10.2018 09:26 8,3 C 9,4 C 8,3 C 97 % 1017,5 hPa 0,0 l/m 0 min 0 min 38 W/m 0,0 km/h (0 Bft) 95,65 %
10.10.2018 09:28 8,4 C 9,4 C 8,3 C 97 % 1017,5 hPa 0,0 l/m 0 min 0 min 39 W/m 0,0 km/h (0 Bft) 97,87 %
10.10.2018 09:30 8,4 C 9,4 C 8,3 C 97 % 1017,5 hPa 0,0 l/m 0 min 0 min 39 W/m 0,0 km/h (0 Bft) 97,14 %
10.10.2018 09:32 8,6 C 9,4 C 8,3 C 97 % 1017,5 hPa 0,0 l/m 0 min 0 min 40 W/m 0,0 km/h (0 Bft) 97,87 %
10.10.2018 09:34 8,6 C 10,0 C 8,3 C 97 % 1017,6 hPa 0,0 l/m 0 min 0 min 40 W/m 3,2 km/h (1 Bft) 98,31 %
10.10.2018 09:38 8,8 C 10,0 C 8,9 C 97 % 1017,5 hPa 0,0 l/m 0 min 0 min 40 W/m 3,2 km/h (1 Bft) 95,70 %
10.10.2018 09:40 8,9 C 10,0 C 8,9 C 97 % 1017,6 hPa 0,0 l/m 0 min 0 min 42 W/m 3,2 km/h (1 Bft) 100,00 %
10.10.2018 09:42 9,0 C 10,6 C 8,9 C 97 % 1017,6 hPa 0,0 l/m 0 min 0 min 66 W/m 0,0 km/h (0 Bft) 96,55 %
10.10.2018 09:44 9,1 C 10,6 C 9,4 C 97 % 1017,5 hPa 0,0 l/m 2 min 0 min 135 W/m 3,2 km/h (1 Bft) 97,14 %
10.10.2018 09:46 9,2 C 10,6 C 9,4 C 97 % 1017,5 hPa 0,0 l/m 2 min 0 min 145 W/m 3,2 km/h (1 Bft) 98,31 %
10.10.2018 09:48 9,4 C 11,1 C 9,4 C 97 % 1017,6 hPa 0,0 l/m 0 min 0 min 127 W/m 0,0 km/h (0 Bft) 93,62 %
10.10.2018 09:50 9,5 C 11,1 C 9,4 C 98 % 1017,5 hPa 0,0 l/m 0 min 0 min 102 W/m 3,2 km/h (1 Bft) 97,83 %
10.10.2018 09:52 9,7 C 11,1 C 9,4 C 98 % 1017,5 hPa 0,0 l/m 0 min 0 min 96 W/m 0,0 km/h (0 Bft) 97,87 %
10.10.2018 09:54 9,8 C 11,7 C 9,4 C 98 % 1017,5 hPa 0,0 l/m 0 min 0 min 66 W/m 0,0 km/h (0 Bft) 97,87 %
10.10.2018 09:56 9,9 C 12,2 C 9,4 C 98 % 1017,5 hPa 0,0 l/m 0 min 0 min 51 W/m 0,0 km/h (0 Bft) 95,74 %
10.10.2018 09:58 10,1 C 13,3 C 10,0 C 98 % 1017,5 hPa 0,0 l/m 0 min 0 min 50 W/m 6,4 km/h (2 Bft) 97,87 %
10.10.2018 10:00 10,2 C 13,3 C 10,0 C 98 % 1017,5 hPa 0,0 l/m 0 min 0 min 51 W/m 3,2 km/h (1 Bft) 97,87 %
10.10.2018 10:02 10,4 C 14,4 C 10,0 C 98 % 1017,5 hPa 0,0 l/m 0 min 0 min 47 W/m 3,2 km/h (1 Bft) 97,83 %
10.10.2018 10:04 10,5 C 15,6 C 10,0 C 98 % 1017,5 hPa 0,0 l/m 0 min 0 min 47 W/m 0,0 km/h (0 Bft) 100,00 %
10.10.2018 10:08 10,8 C 15,0 C 10,0 C 98 % 1017,5 hPa 0,0 l/m 0 min 0 min 53 W/m 3,2 km/h (1 Bft) 100,00 %
10.10.2018 10:10 10,9 C 16,1 C 10,0 C 98 % 1017,4 hPa 0,0 l/m 0 min 0 min 65 W/m 3,2 km/h (1 Bft) 100,00 %
10.10.2018 10:12 11,1 C 17,2 C 10,0 C 98 % 1017,4 hPa 0,0 l/m 0 min 0 min 47 W/m 3,2 km/h (1 Bft) 97,87 %
10.10.2018 10:14 11,2 C 18,3 C 10,0 C 98 % 1017,4 hPa 0,0 l/m 0 min 0 min 50 W/m 3,2 km/h (1 Bft) 97,14 %
10.10.2018 10:16 11,3 C 18,3 C 10,0 C 98 % 1017,3 hPa 0,0 l/m 0 min 0 min 49 W/m 0,0 km/h (0 Bft) 100,00 %
10.10.2018 10:18 11,5 C 18,9 C 10,6 C 98 % 1017,4 hPa 0,0 l/m 0 min 0 min 49 W/m 3,2 km/h (1 Bft) 100,00 %
10.10.2018 10:20 11,7 C 19,4 C 10,6 C 98 % 1017,3 hPa 0,0 l/m 0 min 0 min 50 W/m 0,0 km/h (0 Bft) 100,00 %
10.10.2018 10:22 11,8 C 20,0 C 10,6 C 99 % 1017,4 hPa 0,0 l/m 0 min 0 min 49 W/m 0,0 km/h (0 Bft) 100,00 %
10.10.2018 10:24 12,0 C 20,0 C 10,6 C 98 % 1017,4 hPa 0,0 l/m 0 min 0 min 53 W/m 3,2 km/h (1 Bft) 100,00 %
10.10.2018 10:26 12,2 C 20,0 C 10,6 C 99 % 1017,3 hPa 0,0 l/m 0 min 0 min 53 W/m 0,0 km/h (0 Bft) 100,00 %
10.10.2018 10:28 12,3 C 20,0 C 10,6 C 99 % 1017,3 hPa 0,0 l/m 0 min 0 min 73 W/m 0,0 km/h (0 Bft) 100,00 %
10.10.2018 10:30 12,5 C 20,0 C 10,6 C 99 % 1017,3 hPa 0,0 l/m 0 min 0 min 83 W/m 0,0 km/h (0 Bft) 100,00 %
10.10.2018 10:32 12,7 C 20,6 C 11,1 C 99 % 1017,3 hPa 0,0 l/m 0 min 0 min 105 W/m 6,4 km/h (2 Bft) 100,00 %
10.10.2018 10:34 12,8 C 20,6 C 11,1 C 99 % 1017,2 hPa 0,0 l/m 0 min 0 min 166 W/m 0,0 km/h (0 Bft) 100,00 %
10.10.2018 10:38 13,2 C 21,1 C 11,1 C 99 % 1017,2 hPa 0,0 l/m 4 min 0 min 254 W/m 3,2 km/h (1 Bft) 100,00 %
10.10.2018 10:40 13,3 C 21,7 C 11,1 C 99 % 1017,3 hPa 0,0 l/m 2 min 0 min 258 W/m 0,0 km/h (0 Bft) 100,00 %
10.10.2018 10:42 13,4 C 22,2 C 11,1 C 99 % 1017,2 hPa 0,0 l/m 2 min 0 min 266 W/m 3,2 km/h (1 Bft) 100,00 %
10.10.2018 10:44 13,6 C 22,2 C 11,1 C 99 % 1017,2 hPa 0,0 l/m 2 min 0 min 267 W/m 0,0 km/h (0 Bft) 100,00 %
10.10.2018 10:46 13,8 C 22,8 C 11,7 C 99 % 1017,2 hPa 0,0 l/m 2 min 0 min 265 W/m 3,2 km/h (1 Bft) 100,00 %
10.10.2018 10:48 13,9 C 22,8 C 11,7 C 99 % 1017,2 hPa 0,0 l/m 2 min 0 min 284 W/m 0,0 km/h (0 Bft) 100,00 %
10.10.2018 10:50 14,2 C 22,8 C 11,7 C 99 % 1017,1 hPa 0,0 l/m 2 min 0 min 285 W/m 3,2 km/h (1 Bft) 100,00 %
10.10.2018 10:52 14,2 C 23,3 C 11,7 C 99 % 1017,1 hPa 0,0 l/m 2 min 0 min 201 W/m 3,2 km/h (1 Bft) 100,00 %
10.10.2018 10:54 14,3 C 22,8 C 11,7 C 99 % 1017,2 hPa 0,0 l/m 0 min 0 min 59 W/m 9,7 km/h (2 Bft) 97,87 %
10.10.2018 10:56 14,4 C 22,8 C 12,2 C 99 % 1017,1 hPa 0,0 l/m 0 min 0 min 145 W/m 9,7 km/h (2 Bft) 97,87 %
10.10.2018 10:58 14,6 C 22,2 C 12,2 C 99 % 1017,1 hPa 0,0 l/m 0 min 0 min 71 W/m 9,7 km/h (2 Bft) 97,87 %
10.10.2018 11:00 14,7 C 22,8 C 12,2 C 99 % 1017,1 hPa 0,0 l/m 0 min 0 min 183 W/m 3,2 km/h (1 Bft) 97,87 %
10.10.2018 11:02 14,8 C 23,3 C 12,2 C 99 % 1017,1 hPa 0,0 l/m 2 min 0 min 246 W/m 3,2 km/h (1 Bft) 97,87 %
10.10.2018 11:04 14,9 C 23,3 C 12,2 C 99 % 1017,1 hPa 0,0 l/m 0 min 0 min 129 W/m 3,2 km/h (1 Bft) 97,83 %
10.10.2018 11:08 15,2 C 26,1 C 12,2 C 99 % 1017,0 hPa 0,0 l/m 0 min 0 min 73 W/m 0,0 km/h (0 Bft) 97,87 %
10.10.2018 11:10 15,3 C 26,1 C 12,2 C 99 % 1017,0 hPa 0,0 l/m 0 min 0 min 105 W/m 3,2 km/h (1 Bft) 97,87 %
10.10.2018 11:12 15,4 C 26,1 C 12,2 C 99 % 1017,0 hPa 0,0 l/m 0 min 0 min 184 W/m 6,4 km/h (2 Bft) 93,62 %
10.10.2018 11:14 15,6 C 26,1 C 12,8 C 99 % 1017,0 hPa 0,0 l/m 2 min 0 min 275 W/m 3,2 km/h (1 Bft) 97,83 %
10.10.2018 11:16 15,7 C 26,7 C 12,8 C 99 % 1016,9 hPa 0,0 l/m 2 min 0 min 304 W/m 9,7 km/h (2 Bft) 95,74 %
10.10.2018 11:18 15,8 C 27,2 C 12,8 C 99 % 1016,9 hPa 0,0 l/m 2 min 0 min 277 W/m 9,7 km/h (2 Bft) 93,62 %
10.10.2018 11:20 15,9 C 27,2 C 12,8 C 99 % 1016,9 hPa 0,0 l/m 0 min 0 min 102 W/m 6,4 km/h (2 Bft) 95,74 %
10.10.2018 11:22 15,9 C 26,7 C 12,8 C 99 % 1016,9 hPa 0,0 l/m 0 min 0 min 55 W/m 3,2 km/h (1 Bft) 95,74 %
10.10.2018 11:24 16,1 C 26,7 C 12,8 C 99 % 1016,9 hPa 0,0 l/m 0 min 0 min 54 W/m 6,4 km/h (2 Bft) 95,74 %
10.10.2018 11:26 16,2 C 27,2 C 13,3 C 99 % 1016,8 hPa 0,0 l/m 0 min 0 min 63 W/m 9,7 km/h (2 Bft) 95,65 %
10.10.2018 11:28 16,3 C 27,2 C 13,3 C 99 % 1016,8 hPa 0,0 l/m 0 min 0 min 61 W/m 3,2 km/h (1 Bft) 97,87 %
10.10.2018 11:30 16,4 C 27,8 C 12,8 C 99 % 1016,7 hPa 0,0 l/m 0 min 0 min 144 W/m 6,4 km/h (2 Bft) 95,74 %
10.10.2018 11:32 16,5 C 27,2 C 12,8 C 99 % 1016,8 hPa 0,0 l/m 0 min 0 min 131 W/m 9,7 km/h (2 Bft) 97,87 %
10.10.2018 11:34 16,6 C 27,2 C 13,3 C 99 % 1016,6 hPa 0,0 l/m 0 min 0 min 67 W/m 6,4 km/h (2 Bft) 97,87 %
10.10.2018 11:38 16,8 C 28,3 C 13,3 C 99 % 1016,6 hPa 0,0 l/m 0 min 0 min 62 W/m 6,4 km/h (2 Bft) 97,85 %
10.10.2018 11:40 17,0 C 28,9 C 13,3 C 99 % 1016,4 hPa 0,0 l/m 0 min 0 min 53 W/m 3,2 km/h (1 Bft) 95,74 %
10.10.2018 11:42 17,1 C 28,9 C 13,3 C 98 % 1016,4 hPa 0,0 l/m 0 min 0 min 56 W/m 6,4 km/h (2 Bft) 97,87 %
10.10.2018 11:44 17,3 C 28,3 C 13,3 C 98 % 1016,4 hPa 0,0 l/m 0 min 0 min 94 W/m 6,4 km/h (2 Bft) 95,74 %
10.10.2018 11:46 17,4 C 28,9 C 13,9 C 98 % 1016,4 hPa 0,0 l/m 0 min 0 min 76 W/m 6,4 km/h (2 Bft) 93,62 %
10.10.2018 11:48 17,6 C 28,9 C 13,9 C 97 % 1016,3 hPa 0,0 l/m 0 min 0 min 51 W/m 6,4 km/h (2 Bft) 97,87 %
10.10.2018 11:50 17,8 C 29,4 C 14,4 C 97 % 1016,4 hPa 0,0 l/m 0 min 0 min 51 W/m 6,4 km/h (2 Bft) 97,83 %
10.10.2018 11:52 17,9 C 27,8 C 13,9 C 96 % 1016,4 hPa 0,0 l/m 0 min 0 min 53 W/m 6,4 km/h (2 Bft) 97,22 %
10.10.2018 11:54 18,1 C 27,2 C 13,9 C 94 % 1016,3 hPa 0,0 l/m 0 min 0 min 53 W/m 9,7 km/h (2 Bft) 100,00 %
10.10.2018 11:56 18,3 C 27,2 C 13,9 C 93 % 1016,2 hPa 0,0 l/m 0 min 0 min 68 W/m 6,4 km/h (2 Bft) 100,00 %
10.10.2018 11:58 18,5 C 28,3 C 13,9 C 91 % 1016,2 hPa 0,0 l/m 0 min 0 min 53 W/m 6,4 km/h (2 Bft) 100,00 %
10.10.2018 12:00 18,7 C 29,4 C 13,9 C 89 % 1016,2 hPa 0,0 l/m 0 min 0 min 54 W/m 3,2 km/h (1 Bft) 97,83 %
10.10.2018 12:02 18,9 C 28,9 C 13,9 C 88 % 1016,2 hPa 0,0 l/m 0 min 0 min 137 W/m 9,7 km/h (2 Bft) 97,87 %
10.10.2018 12:04 19,1 C 28,3 C 13,9 C 85 % 1016,0 hPa 0,0 l/m 0 min 0 min 136 W/m 6,4 km/h (2 Bft) 100,00 %
10.10.2018 12:07 19,4 C 27,8 C 14,4 C 83 % 1015,9 hPa 0,0 l/m 0 min 0 min 54 W/m 9,7 km/h (2 Bft) 100,00 %
10.10.2018 12:08 19,6 C 28,9 C 14,4 C 82 % 1015,9 hPa 0,0 l/m 0 min 0 min 54 W/m 9,7 km/h (2 Bft) 98,94 %
10.10.2018 12:10 19,7 C 30,0 C 14,4 C 81 % 1015,9 hPa 0,0 l/m 0 min 0 min 53 W/m 3,2 km/h (1 Bft) 97,87 %
10.10.2018 12:12 19,9 C 30,6 C 14,4 C 80 % 1015,9 hPa 0,0 l/m 0 min 0 min 53 W/m 9,7 km/h (2 Bft) 100,00 %
10.10.2018 12:14 20,1 C 29,4 C 14,4 C 79 % 1015,8 hPa 0,0 l/m 0 min 0 min 53 W/m 9,7 km/h (2 Bft) 100,00 %
10.10.2018 12:16 20,3 C 30,0 C 14,4 C 78 % 1015,8 hPa 0,0 l/m 0 min 0 min 53 W/m 6,4 km/h (2 Bft) 100,00 %
10.10.2018 12:18 20,5 C 29,4 C 14,4 C 76 % 1015,8 hPa 0,0 l/m 0 min 0 min 53 W/m 16,1 km/h (3 Bft) 100,00 %
10.10.2018 12:20 20,7 C 29,4 C 14,4 C 75 % 1015,8 hPa 0,0 l/m 0 min 0 min 53 W/m 12,9 km/h (3 Bft) 97,87 %
10.10.2018 12:22 20,8 C 28,3 C 14,4 C 74 % 1015,8 hPa 0,0 l/m 0 min 0 min 71 W/m 9,7 km/h (2 Bft) 100,00 %
10.10.2018 12:24 21,0 C 30,0 C 15,0 C 74 % 1015,7 hPa 0,0 l/m 0 min 0 min 54 W/m 6,4 km/h (2 Bft) 97,87 %
10.10.2018 12:26 21,1 C 29,4 C 15,0 C 73 % 1015,7 hPa 0,0 l/m 0 min 0 min 57 W/m 9,7 km/h (2 Bft) 97,83 %
10.10.2018 12:28 21,2 C 28,3 C 15,0 C 71 % 1015,7 hPa 0,0 l/m 0 min 0 min 87 W/m 12,9 km/h (3 Bft) 100,00 %
10.10.2018 12:30 21,4 C 28,9 C 15,0 C 71 % 1015,7 hPa 0,0 l/m 0 min 0 min 61 W/m 9,7 km/h (2 Bft) 97,87 %
10.10.2018 12:32 21,5 C 29,4 C 15,0 C 71 % 1015,7 hPa 0,0 l/m 0 min 0 min 53 W/m 9,7 km/h (2 Bft) 100,00 %
10.10.2018 12:34 21,6 C 27,8 C 15,0 C 70 % 1015,7 hPa 0,0 l/m 0 min 0 min 54 W/m 9,7 km/h (2 Bft) 100,00 %
10.10.2018 12:38 21,8 C 27,2 C 15,6 C 69 % 1015,7 hPa 0,0 l/m 0 min 0 min 176 W/m 12,9 km/h (3 Bft) 98,92 %
10.10.2018 12:40 21,9 C 26,1 C 15,6 C 69 % 1015,7 hPa 0,0 l/m 0 min 0 min 130 W/m 12,9 km/h (3 Bft) 98,11 %
10.10.2018 12:42 22,0 C 26,1 C 15,6 C 69 % 1015,6 hPa 0,0 l/m 0 min 0 min 55 W/m 6,4 km/h (2 Bft) 100,00 %
10.10.2018 12:44 22,0 C 25,0 C 15,6 C 68 % 1015,6 hPa 0,0 l/m 0 min 0 min 56 W/m 9,7 km/h (2 Bft) 100,00 %
10.10.2018 12:46 22,1 C 23,9 C 15,6 C 68 % 1015,6 hPa 0,0 l/m 0 min 0 min 71 W/m 12,9 km/h (3 Bft) 100,00 %
10.10.2018 12:48 22,1 C 22,8 C 15,6 C 68 % 1015,6 hPa 0,0 l/m 0 min 0 min 119 W/m 9,7 km/h (2 Bft) 97,87 %
10.10.2018 12:50 22,1 C 22,2 C 15,6 C 69 % 1015,6 hPa 0,0 l/m 0 min 0 min 134 W/m 6,4 km/h (2 Bft) 100,00 %
10.10.2018 12:52 22,1 C 21,7 C 15,6 C 68 % 1015,5 hPa 0,0 l/m 0 min 0 min 69 W/m 9,7 km/h (2 Bft) 100,00 %
10.10.2018 12:54 22,1 C 21,7 C 16,1 C 68 % 1015,5 hPa 0,0 l/m 0 min 0 min 103 W/m 12,9 km/h (3 Bft) 100,00 %
10.10.2018 12:56 22,1 C 21,1 C 16,1 C 69 % 1015,5 hPa 0,0 l/m 0 min 0 min 142 W/m 9,7 km/h (2 Bft) 97,87 %
10.10.2018 12:58 22,1 C 21,1 C 16,1 C 69 % 1015,4 hPa 0,0 l/m 0 min 0 min 259 W/m 9,7 km/h (2 Bft) 97,83 %
10.10.2018 13:00 22,1 C 21,1 C 16,1 C 69 % 1015,4 hPa 0,0 l/m 2 min 0 min 343 W/m 9,7 km/h (2 Bft) 97,87 %
10.10.2018 13:02 22,1 C 21,1 C 16,1 C 69 % 1015,3 hPa 0,0 l/m 2 min 0 min 458 W/m 9,7 km/h (2 Bft) 93,62 %
10.10.2018 13:04 22,1 C 21,1 C 16,1 C 69 % 1015,3 hPa 0,0 l/m 2 min 0 min 457 W/m 6,4 km/h (2 Bft) 95,74 %
10.10.2018 13:08 22,0 C 21,1 C 16,1 C 69 % 1015,1 hPa 0,0 l/m 4 min 0 min 473 W/m 6,4 km/h (2 Bft) 97,89 %
10.10.2018 13:10 22,0 C 21,1 C 16,1 C 69 % 1015,1 hPa 0,0 l/m 2 min 0 min 484 W/m 12,9 km/h (3 Bft) 97,83 %
10.10.2018 13:12 21,9 C 21,1 C 16,1 C 68 % 1015,1 hPa 0,0 l/m 2 min 0 min 485 W/m 9,7 km/h (2 Bft) 97,14 %
10.10.2018 13:14 21,9 C 21,1 C 16,1 C 68 % 1015,0 hPa 0,0 l/m 2 min 0 min 484 W/m 12,9 km/h (3 Bft) 97,87 %
10.10.2018 13:16 21,9 C 21,7 C 16,1 C 67 % 1015,0 hPa 0,0 l/m 2 min 0 min 488 W/m 9,7 km/h (2 Bft) 98,31 %
10.10.2018 13:18 21,9 C 21,7 C 16,7 C 68 % 1015,0 hPa 0,0 l/m 2 min 0 min 490 W/m 6,4 km/h (2 Bft) 97,14 %
10.10.2018 13:20 21,9 C 21,7 C 16,7 C 68 % 1015,0 hPa 0,0 l/m 2 min 0 min 492 W/m 9,7 km/h (2 Bft) 98,28 %
10.10.2018 13:22 21,9 C 21,7 C 16,7 C 68 % 1015,0 hPa 0,0 l/m 2 min 0 min 491 W/m 12,9 km/h (3 Bft) 97,92 %
10.10.2018 13:24 21,9 C 22,2 C 16,7 C 67 % 1015,0 hPa 0,0 l/m 2 min 0 min 488 W/m 9,7 km/h (2 Bft) 97,14 %
10.10.2018 13:26 21,9 C 22,2 C 16,7 C 67 % 1014,9 hPa 0,0 l/m 2 min 0 min 490 W/m 12,9 km/h (3 Bft) 97,87 %
10.10.2018 13:28 21,9 C 21,7 C 16,7 C 67 % 1015,0 hPa 0,0 l/m 2 min 0 min 490 W/m 9,7 km/h (2 Bft) 95,74 %
10.10.2018 13:30 21,9 C 21,7 C 16,7 C 67 % 1014,9 hPa 0,0 l/m 2 min 0 min 489 W/m 9,7 km/h (2 Bft) 95,74 %
10.10.2018 13:32 22,0 C 22,2 C 16,7 C 67 % 1014,9 hPa 0,0 l/m 2 min 0 min 491 W/m 9,7 km/h (2 Bft) 93,62 %
10.10.2018 13:34 22,0 C 22,2 C 16,7 C 67 % 1014,9 hPa 0,0 l/m 2 min 0 min 492 W/m 9,7 km/h (2 Bft) 95,74 %
10.10.2018 13:38 22,0 C 22,2 C 16,7 C 66 % 1014,7 hPa 0,0 l/m 4 min 0 min 494 W/m 16,1 km/h (3 Bft) 94,68 %
10.10.2018 13:40 22,1 C 22,2 C 16,7 C 65 % 1014,7 hPa 0,0 l/m 2 min 0 min 496 W/m 9,7 km/h (2 Bft) 93,62 %
10.10.2018 13:42 22,1 C 22,2 C 16,7 C 66 % 1014,6 hPa 0,0 l/m 2 min 0 min 496 W/m 12,9 km/h (3 Bft) 95,74 %
10.10.2018 13:44 22,1 C 22,2 C 16,7 C 66 % 1014,5 hPa 0,0 l/m 2 min 0 min 495 W/m 12,9 km/h (3 Bft) 93,62 %
10.10.2018 13:46 22,1 C 22,2 C 16,7 C 66 % 1014,5 hPa 0,0 l/m 2 min 0 min 498 W/m 9,7 km/h (2 Bft) 91,49 %
10.10.2018 13:48 22,1 C 22,2 C 17,2 C 66 % 1014,4 hPa 0,0 l/m 2 min 0 min 497 W/m 9,7 km/h (2 Bft) 93,48 %
10.10.2018 13:51 22,2 C 22,2 C 17,2 C 65 % 1014,4 hPa 0,0 l/m 3 min 0 min 499 W/m 12,9 km/h (3 Bft) 94,37 %
10.10.2018 13:52 22,2 C 22,2 C 17,8 C 66 % 1014,4 hPa 0,0 l/m 1 min 0 min 497 W/m 3,2 km/h (1 Bft) 100,00 %
10.10.2018 13:54 22,2 C 22,2 C 17,2 C 65 % 1014,4 hPa 0,0 l/m 2 min 0 min 499 W/m 9,7 km/h (2 Bft) 95,74 %
10.10.2018 13:56 22,2 C 22,8 C 17,8 C 64 % 1014,3 hPa 0,0 l/m 2 min 0 min 501 W/m 9,7 km/h (2 Bft) 91,49 %
10.10.2018 13:58 22,2 C 23,3 C 17,8 C 65 % 1014,3 hPa 0,0 l/m 2 min 0 min 501 W/m 19,3 km/h (3 Bft) 95,74 %
10.10.2018 14:00 22,2 C 23,3 C 17,8 C 64 % 1014,3 hPa 0,0 l/m 2 min 0 min 501 W/m 12,9 km/h (3 Bft) 95,65 %
10.10.2018 14:02 22,3 C 22,8 C 17,8 C 64 % 1014,3 hPa 0,0 l/m 2 min 0 min 501 W/m 16,1 km/h (3 Bft) 93,62 %
10.10.2018 14:04 22,3 C 22,8 C 17,2 C 64 % 1014,2 hPa 0,0 l/m 2 min 0 min 502 W/m 12,9 km/h (3 Bft) 95,74 %
10.10.2018 14:06 22,3 C 22,2 C 17,2 C 64 % 1014,1 hPa 0,0 l/m 2 min 0 min 500 W/m 9,7 km/h (2 Bft) 96,55 %
10.10.2018 14:08 22,3 C 22,8 C 17,8 C 63 % 1014,0 hPa 0,0 l/m 2 min 0 min 501 W/m 12,9 km/h (3 Bft) 94,44 %
10.10.2018 14:10 22,3 C 22,8 C 17,2 C 63 % 1014,0 hPa 0,0 l/m 2 min 0 min 498 W/m 9,7 km/h (2 Bft) 95,65 %
10.10.2018 14:12 22,3 C 22,8 C 17,2 C 64 % 1014,1 hPa 0,0 l/m 2 min 0 min 496 W/m 9,7 km/h (2 Bft) 95,74 %
10.10.2018 14:14 22,4 C 22,8 C 17,8 C 63 % 1014,0 hPa 0,0 l/m 2 min 0 min 497 W/m 9,7 km/h (2 Bft) 93,62 %
10.10.2018 14:16 22,4 C 22,8 C 17,8 C 63 % 1013,9 hPa 0,0 l/m 2 min 0 min 472 W/m 9,7 km/h (2 Bft) 95,74 %
10.10.2018 14:18 22,4 C 22,8 C 17,8 C 63 % 1013,9 hPa 0,0 l/m 2 min 0 min 302 W/m 12,9 km/h (3 Bft) 95,74 %
10.10.2018 14:20 22,4 C 22,8 C 17,8 C 63 % 1013,7 hPa 0,0 l/m 2 min 0 min 318 W/m 12,9 km/h (3 Bft) 93,62 %
10.10.2018 14:22 22,5 C 22,8 C 17,2 C 62 % 1013,7 hPa 0,0 l/m 0 min 0 min 84 W/m 16,1 km/h (3 Bft) 95,65 %
10.10.2018 14:24 22,5 C 22,8 C 17,2 C 62 % 1013,7 hPa 0,0 l/m 0 min 0 min 57 W/m 12,9 km/h (3 Bft) 95,74 %
10.10.2018 14:26 22,6 C 22,8 C 17,2 C 60 % 1013,6 hPa 0,0 l/m 0 min 0 min 58 W/m 19,3 km/h (3 Bft) 95,74 %
10.10.2018 14:28 22,6 C 22,8 C 17,2 C 61 % 1013,6 hPa 0,0 l/m 0 min 0 min 57 W/m 12,9 km/h (3 Bft) 95,74 %
10.10.2018 14:30 22,6 C 22,8 C 17,2 C 60 % 1013,6 hPa 0,0 l/m 0 min 0 min 56 W/m 12,9 km/h (3 Bft) 97,87 %
10.10.2018 14:32 22,6 C 22,8 C 17,2 C 61 % 1013,5 hPa 0,0 l/m 0 min 0 min 70 W/m 9,7 km/h (2 Bft) 97,87 %
10.10.2018 14:34 22,7 C 22,8 C 17,2 C 60 % 1013,5 hPa 0,0 l/m 0 min 0 min 117 W/m 9,7 km/h (2 Bft) 100,00 %
10.10.2018 14:36 22,7 C 22,8 C 17,2 C 60 % 1013,5 hPa 0,0 l/m 0 min 0 min 109 W/m 12,9 km/h (3 Bft) 97,87 %
10.10.2018 14:38 22,7 C 22,8 C 17,2 C 60 % 1013,4 hPa 0,0 l/m 0 min 0 min 216 W/m 16,1 km/h (3 Bft) 100,00 %
10.10.2018 14:40 22,8 C 22,8 C 17,2 C 59 % 1013,4 hPa 0,0 l/m 0 min 0 min 82 W/m 19,3 km/h (3 Bft) 97,87 %
10.10.2018 14:42 22,8 C 23,3 C 17,2 C 60 % 1013,4 hPa 0,0 l/m 0 min 0 min 88 W/m 12,9 km/h (3 Bft) 100,00 %
10.10.2018 14:44 22,8 C 23,3 C 17,2 C 60 % 1013,3 hPa 0,0 l/m 0 min 0 min 194 W/m 12,9 km/h (3 Bft) 100,00 %
10.10.2018 14:46 22,9 C 23,3 C 17,2 C 60 % 1013,3 hPa 0,0 l/m 0 min 0 min 227 W/m 16,1 km/h (3 Bft) 97,87 %
10.10.2018 14:48 22,9 C 23,3 C 17,2 C 60 % 1013,3 hPa 0,0 l/m 2 min 0 min 329 W/m 9,7 km/h (2 Bft) 97,87 %
10.10.2018 14:50 22,9 C 23,3 C 17,8 C 60 % 1013,2 hPa 0,0 l/m 2 min 0 min 465 W/m 16,1 km/h (3 Bft) 97,87 %
10.10.2018 14:52 22,9 C 23,3 C 17,8 C 60 % 1013,2 hPa 0,0 l/m 2 min 0 min 475 W/m 12,9 km/h (3 Bft) 100,00 %
10.10.2018 14:54 23,0 C 23,3 C 17,8 C 60 % 1013,1 hPa 0,0 l/m 2 min 0 min 474 W/m 6,4 km/h (2 Bft) 100,00 %
10.10.2018 14:56 23,0 C 23,3 C 17,8 C 59 % 1013,1 hPa 0,0 l/m 2 min 0 min 471 W/m 12,9 km/h (3 Bft) 100,00 %
10.10.2018 14:58 23,1 C 23,3 C 18,3 C 60 % 1013,1 hPa 0,0 l/m 2 min 0 min 469 W/m 16,1 km/h (3 Bft) 100,00 %
10.10.2018 15:00 23,1 C 23,3 C 18,3 C 59 % 1013,1 hPa 0,0 l/m 2 min 0 min 466 W/m 16,1 km/h (3 Bft) 97,87 %
10.10.2018 15:02 23,1 C 23,3 C 18,3 C 59 % 1013,1 hPa 0,0 l/m 2 min 0 min 465 W/m 12,9 km/h (3 Bft) 100,00 %
10.10.2018 15:04 23,2 C 23,3 C 18,3 C 59 % 1013,1 hPa 0,0 l/m 2 min 0 min 462 W/m 6,4 km/h (2 Bft) 100,00 %
10.10.2018 15:06 23,2 C 23,3 C 18,3 C 59 % 1013,0 hPa 0,0 l/m 2 min 0 min 462 W/m 6,4 km/h (2 Bft) 100,00 %
10.10.2018 15:08 23,2 C 23,3 C 18,3 C 59 % 1012,9 hPa 0,0 l/m 2 min 0 min 458 W/m 6,4 km/h (2 Bft) 100,00 %
10.10.2018 15:10 23,3 C 23,3 C 18,3 C 58 % 1012,9 hPa 0,0 l/m 2 min 0 min 455 W/m 9,7 km/h (2 Bft) 100,00 %
10.10.2018 15:12 23,3 C 23,3 C 18,3 C 58 % 1012,9 hPa 0,0 l/m 2 min 0 min 453 W/m 9,7 km/h (2 Bft) 100,00 %
10.10.2018 15:14 23,3 C 23,3 C 17,8 C 58 % 1012,9 hPa 0,0 l/m 2 min 0 min 450 W/m 12,9 km/h (3 Bft) 100,00 %
10.10.2018 15:16 23,3 C 23,3 C 17,8 C 58 % 1012,9 hPa 0,0 l/m 2 min 0 min 447 W/m 16,1 km/h (3 Bft) 97,87 %
10.10.2018 15:18 23,4 C 23,3 C 17,8 C 58 % 1012,9 hPa 0,0 l/m 2 min 0 min 445 W/m 6,4 km/h (2 Bft) 100,00 %
10.10.2018 15:20 23,4 C 23,3 C 18,3 C 58 % 1012,8 hPa 0,0 l/m 2 min 0 min 442 W/m 6,4 km/h (2 Bft) 100,00 %
10.10.2018 15:22 23,4 C 23,9 C 18,3 C 58 % 1012,7 hPa 0,0 l/m 2 min 0 min 440 W/m 6,4 km/h (2 Bft) 100,00 %
10.10.2018 15:24 23,4 C 23,9 C 17,8 C 58 % 1012,7 hPa 0,0 l/m 2 min 0 min 436 W/m 9,7 km/h (2 Bft) 100,00 %
10.10.2018 15:26 23,5 C 23,9 C 18,3 C 57 % 1012,7 hPa 0,0 l/m 2 min 0 min 435 W/m 9,7 km/h (2 Bft) 100,00 %
10.10.2018 15:28 23,5 C 23,9 C 17,8 C 57 % 1012,6 hPa 0,0 l/m 2 min 0 min 432 W/m 9,7 km/h (2 Bft) 97,87 %
10.10.2018 15:30 23,6 C 23,9 C 18,3 C 57 % 1012,5 hPa 0,0 l/m 2 min 0 min 429 W/m 9,7 km/h (2 Bft) 100,00 %
10.10.2018 15:32 23,6 C 23,9 C 18,3 C 58 % 1012,5 hPa 0,0 l/m 2 min 0 min 426 W/m 12,9 km/h (3 Bft) 100,00 %
10.10.2018 15:34 23,7 C 23,9 C 17,8 C 57 % 1012,6 hPa 0,0 l/m 2 min 0 min 423 W/m 16,1 km/h (3 Bft) 100,00 %
10.10.2018 15:36 23,7 C 23,9 C 17,8 C 57 % 1012,6 hPa 0,0 l/m 2 min 0 min 420 W/m 9,7 km/h (2 Bft) 97,87 %
10.10.2018 15:38 23,7 C 23,9 C 18,3 C 57 % 1012,5 hPa 0,0 l/m 2 min 0 min 418 W/m 9,7 km/h (2 Bft) 100,00 %
10.10.2018 15:40 23,7 C 23,9 C 18,3 C 57 % 1012,5 hPa 0,0 l/m 2 min 0 min 414 W/m 9,7 km/h (2 Bft) 97,87 %
10.10.2018 15:42 23,8 C 23,9 C 18,3 C 56 % 1012,5 hPa 0,0 l/m 2 min 0 min 412 W/m 19,3 km/h (3 Bft) 97,87 %
10.10.2018 15:44 23,8 C 23,9 C 18,3 C 56 % 1012,5 hPa 0,0 l/m 2 min 0 min 410 W/m 9,7 km/h (2 Bft) 93,48 %
10.10.2018 15:46 23,8 C 23,9 C 18,3 C 57 % 1012,4 hPa 0,0 l/m 2 min 0 min 405 W/m 9,7 km/h (2 Bft) 98,11 %
10.10.2018 15:48 23,8 C 23,9 C 18,3 C 56 % 1012,4 hPa 0,0 l/m 2 min 0 min 402 W/m 12,9 km/h (3 Bft) 100,00 %
10.10.2018 15:50 23,9 C 23,9 C 18,3 C 56 % 1012,3 hPa 0,0 l/m 2 min 0 min 400 W/m 9,7 km/h (2 Bft) 100,00 %
10.10.2018 15:52 23,9 C 23,9 C 18,3 C 57 % 1012,3 hPa 0,0 l/m 2 min 0 min 396 W/m 9,7 km/h (2 Bft) 97,92 %
10.10.2018 15:54 23,9 C 23,9 C 18,3 C 57 % 1012,2 hPa 0,0 l/m 2 min 0 min 394 W/m 12,9 km/h (3 Bft) 100,00 %
10.10.2018 15:56 23,9 C 23,9 C 18,3 C 57 % 1012,2 hPa 0,0 l/m 2 min 0 min 393 W/m 12,9 km/h (3 Bft) 100,00 %
10.10.2018 15:58 23,9 C 24,4 C 18,3 C 56 % 1012,2 hPa 0,0 l/m 2 min 0 min 389 W/m 9,7 km/h (2 Bft) 100,00 %
10.10.2018 16:00 24,0 C 24,4 C 18,3 C 57 % 1012,2 hPa 0,0 l/m 2 min 0 min 388 W/m 9,7 km/h (2 Bft) 97,87 %
10.10.2018 16:02 24,0 C 24,4 C 18,9 C 56 % 1012,1 hPa 0,0 l/m 2 min 0 min 384 W/m 6,4 km/h (2 Bft) 95,74 %
10.10.2018 16:04 24,0 C 24,4 C 18,9 C 57 % 1012,1 hPa 0,0 l/m 2 min 0 min 381 W/m 6,4 km/h (2 Bft) 97,87 %
10.10.2018 16:06 24,1 C 24,4 C 18,9 C 57 % 1012,1 hPa 0,0 l/m 2 min 0 min 378 W/m 6,4 km/h (2 Bft) 97,83 %
10.10.2018 16:08 24,1 C 24,4 C 18,9 C 56 % 1012,1 hPa 0,0 l/m 2 min 0 min 375 W/m 9,7 km/h (2 Bft) 97,87 %
10.10.2018 16:10 24,1 C 24,4 C 18,3 C 55 % 1012,1 hPa 0,0 l/m 2 min 0 min 372 W/m 9,7 km/h (2 Bft) 97,87 %
10.10.2018 16:12 24,1 C 24,4 C 18,3 C 55 % 1012,0 hPa 0,0 l/m 2 min 0 min 369 W/m 9,7 km/h (2 Bft) 97,87 %
10.10.2018 16:14 24,1 C 24,4 C 18,3 C 55 % 1011,9 hPa 0,0 l/m 2 min 0 min 365 W/m 9,7 km/h (2 Bft) 97,87 %
10.10.2018 16:16 24,1 C 24,4 C 18,3 C 54 % 1012,0 hPa 0,0 l/m 2 min 0 min 360 W/m 6,4 km/h (2 Bft) 100,00 %
10.10.2018 16:18 24,2 C 24,4 C 18,3 C 55 % 1011,9 hPa 0,0 l/m 2 min 0 min 356 W/m 12,9 km/h (3 Bft) 95,65 %
10.10.2018 16:20 24,2 C 24,4 C 18,3 C 55 % 1011,8 hPa 0,0 l/m 2 min 0 min 353 W/m 12,9 km/h (3 Bft) 95,74 %
10.10.2018 16:22 24,2 C 24,4 C 18,3 C 54 % 1011,9 hPa 0,0 l/m 2 min 0 min 347 W/m 12,9 km/h (3 Bft) 97,92 %
10.10.2018 16:24 24,3 C 25,0 C 18,3 C 54 % 1011,9 hPa 0,0 l/m 2 min 0 min 342 W/m 12,9 km/h (3 Bft) 95,74 %
10.10.2018 16:26 24,3 C 25,0 C 18,3 C 53 % 1011,9 hPa 0,0 l/m 2 min 0 min 338 W/m 12,9 km/h (3 Bft) 95,74 %
10.10.2018 16:28 24,3 C 25,0 C 18,3 C 54 % 1011,9 hPa 0,0 l/m 2 min 0 min 337 W/m 9,7 km/h (2 Bft) 93,48 %
10.10.2018 16:30 24,4 C 25,0 C 18,3 C 54 % 1011,8 hPa 0,0 l/m 2 min 0 min 330 W/m 9,7 km/h (2 Bft) 94,74 %
10.10.2018 16:32 24,4 C 26,1 C 18,3 C 54 % 1011,8 hPa 0,0 l/m 2 min 0 min 327 W/m 6,4 km/h (2 Bft) 96,00 %
10.10.2018 16:34 24,4 C 26,1 C 18,3 C 53 % 1011,8 hPa 0,0 l/m 2 min 0 min 324 W/m 12,9 km/h (3 Bft) 95,74 %
10.10.2018 16:36 24,4 C 26,1 C 18,3 C 53 % 1011,7 hPa 0,0 l/m 2 min 0 min 319 W/m 12,9 km/h (3 Bft) 93,75 %
10.10.2018 16:38 24,5 C 25,6 C 18,3 C 52 % 1011,5 hPa 0,0 l/m 2 min 0 min 315 W/m 12,9 km/h (3 Bft) 95,74 %
10.10.2018 16:40 24,5 C 26,7 C 18,3 C 51 % 1011,6 hPa 0,0 l/m 2 min 0 min 313 W/m 9,7 km/h (2 Bft) 95,74 %
10.10.2018 16:45 24,6 C 27,2 C 18,3 C 48 % 1011,7 hPa 0,0 l/m 5 min 0 min 306 W/m 19,3 km/h (3 Bft) 95,61 %
10.10.2018 16:50 24,6 C 26,1 C 18,3 C 48 % 1011,6 hPa 0,0 l/m 5 min 0 min 292 W/m 6,4 km/h (2 Bft) 100,00 %
10.10.2018 16:52 24,6 C 26,1 C 18,3 C 48 % 1011,5 hPa 0,0 l/m 2 min 0 min 290 W/m 12,9 km/h (3 Bft) 91,94 %
10.10.2018 16:54 24,7 C 25,6 C 18,3 C 48 % 1011,5 hPa 0,0 l/m 2 min 0 min 288 W/m 9,7 km/h (2 Bft) 93,48 %
10.10.2018 16:56 24,7 C 25,0 C 18,3 C 48 % 1011,5 hPa 0,0 l/m 2 min 0 min 284 W/m 9,7 km/h (2 Bft) 91,49 %
10.10.2018 16:58 24,7 C 25,0 C 18,3 C 48 % 1011,5 hPa 0,0 l/m 2 min 0 min 279 W/m 12,9 km/h (3 Bft) 91,49 %
10.10.2018 17:00 24,7 C 24,4 C 18,3 C 49 % 1011,4 hPa 0,0 l/m 2 min 0 min 273 W/m 12,9 km/h (3 Bft) 95,74 %
10.10.2018 17:04 24,7 C 23,9 C 18,3 C 49 % 1011,5 hPa 0,0 l/m 4 min 0 min 267 W/m 9,7 km/h (2 Bft) 95,65 %
10.10.2018 17:08 24,7 C 23,9 C 18,3 C 49 % 1011,4 hPa 0,0 l/m 4 min 0 min 220 W/m 9,7 km/h (2 Bft) 98,00 %
10.10.2018 17:10 24,7 C 23,9 C 18,3 C 49 % 1011,4 hPa 0,0 l/m 2 min 0 min 192 W/m 9,7 km/h (2 Bft) 97,83 %
10.10.2018 17:12 24,7 C 23,9 C 18,3 C 49 % 1011,4 hPa 0,0 l/m 2 min 0 min 167 W/m 12,9 km/h (3 Bft) 97,50 %
10.10.2018 17:14 24,6 C 23,9 C 18,3 C 49 % 1011,3 hPa 0,0 l/m 0 min 0 min 62 W/m 6,4 km/h (2 Bft) 95,74 %
10.10.2018 17:16 24,6 C 23,9 C 17,8 C 49 % 1011,3 hPa 0,0 l/m 0 min 0 min 39 W/m 9,7 km/h (2 Bft) 97,92 %
10.10.2018 17:18 24,6 C 23,3 C 17,8 C 50 % 1011,4 hPa 0,0 l/m 0 min 0 min 39 W/m 9,7 km/h (2 Bft) 97,78 %
10.10.2018 17:22 24,5 C 23,3 C 17,8 C 51 % 1011,2 hPa 0,0 l/m 0 min 0 min 37 W/m 6,4 km/h (2 Bft) 97,89 %
10.10.2018 17:24 24,5 C 23,3 C 17,8 C 50 % 1011,2 hPa 0,0 l/m 0 min 0 min 37 W/m 6,4 km/h (2 Bft) 97,87 %
10.10.2018 17:26 24,4 C 23,3 C 17,8 C 50 % 1011,1 hPa 0,0 l/m 0 min 0 min 35 W/m 25,7 km/h (4 Bft) 95,74 %
10.10.2018 17:28 24,4 C 23,3 C 17,8 C 50 % 1011,1 hPa 0,0 l/m 0 min 0 min 36 W/m 12,9 km/h (3 Bft) 97,87 %
10.10.2018 17:30 24,3 C 23,3 C 18,3 C 49 % 1011,2 hPa 0,0 l/m 0 min 0 min 37 W/m 12,9 km/h (3 Bft) 97,83 %
10.10.2018 17:32 24,3 C 23,3 C 17,8 C 49 % 1011,3 hPa 0,0 l/m 0 min 0 min 37 W/m 12,9 km/h (3 Bft) 97,92 %
10.10.2018 17:34 24,2 C 23,3 C 18,3 C 49 % 1011,2 hPa 0,0 l/m 0 min 0 min 35 W/m 12,9 km/h (3 Bft) 100,00 %
10.10.2018 17:38 24,2 C 23,3 C 17,8 C 50 % 1011,1 hPa 0,0 l/m 0 min 0 min 35 W/m 9,7 km/h (2 Bft) 97,87 %
10.10.2018 17:40 24,1 C 23,3 C 17,8 C 49 % 1011,2 hPa 0,0 l/m 0 min 0 min 33 W/m 9,7 km/h (2 Bft) 97,87 %
10.10.2018 17:42 24,1 C 23,3 C 17,8 C 50 % 1011,2 hPa 0,0 l/m 0 min 0 min 32 W/m 9,7 km/h (2 Bft) 100,00 %
10.10.2018 17:44 24,1 C 22,8 C 17,8 C 50 % 1011,2 hPa 0,0 l/m 0 min 0 min 32 W/m 12,9 km/h (3 Bft) 100,00 %
10.10.2018 17:47 24,0 C 22,8 C 17,8 C 51 % 1011,1 hPa 0,0 l/m 0 min 0 min 31 W/m 16,1 km/h (3 Bft) 100,00 %
10.10.2018 17:48 23,9 C 22,2 C 17,8 C 51 % 1011,1 hPa 0,0 l/m 0 min 0 min 30 W/m 9,7 km/h (2 Bft) 100,00 %
10.10.2018 17:50 23,9 C 22,2 C 17,8 C 51 % 1011,0 hPa 0,0 l/m 0 min 0 min 30 W/m 9,7 km/h (2 Bft) 97,87 %
10.10.2018 17:52 23,8 C 22,2 C 17,8 C 50 % 1011,0 hPa 0,0 l/m 0 min 0 min 28 W/m 12,9 km/h (3 Bft) 100,00 %
10.10.2018 17:54 23,8 C 22,2 C 17,8 C 51 % 1011,0 hPa 0,0 l/m 0 min 0 min 28 W/m 9,7 km/h (2 Bft) 100,00 %
10.10.2018 17:56 23,7 C 22,2 C 17,8 C 50 % 1011,0 hPa 0,0 l/m 0 min 0 min 28 W/m 12,9 km/h (3 Bft) 100,00 %
10.10.2018 17:58 23,7 C 22,2 C 17,8 C 50 % 1011,0 hPa 0,0 l/m 0 min 0 min 26 W/m 16,1 km/h (3 Bft) 100,00 %
10.10.2018 18:00 23,6 C 22,2 C 17,8 C 51 % 1011,0 hPa 0,0 l/m 0 min 0 min 26 W/m 9,7 km/h (2 Bft) 100,00 %
10.10.2018 18:02 23,6 C 22,2 C 17,8 C 50 % 1011,0 hPa 0,0 l/m 0 min 0 min 26 W/m 6,4 km/h (2 Bft) 100,00 %
10.10.2018 18:04 23,5 C 22,2 C 17,8 C 51 % 1011,1 hPa 0,0 l/m 0 min 0 min 25 W/m 6,4 km/h (2 Bft) 100,00 %
10.10.2018 18:07 23,4 C 22,2 C 17,8 C 51 % 1011,0 hPa 0,0 l/m 0 min 0 min 23 W/m 9,7 km/h (2 Bft) 100,00 %
10.10.2018 18:10 23,3 C 21,7 C 17,8 C 51 % 1011,0 hPa 0,0 l/m 0 min 0 min 24 W/m 9,7 km/h (2 Bft) 100,00 %
10.10.2018 18:12 23,3 C 21,1 C 17,2 C 53 % 1010,9 hPa 0,0 l/m 0 min 0 min 22 W/m 3,2 km/h (1 Bft) 100,00 %
10.10.2018 18:14 23,2 C 21,1 C 17,2 C 52 % 1010,9 hPa 0,0 l/m 0 min 0 min 21 W/m 6,4 km/h (2 Bft) 100,00 %
10.10.2018 18:16 23,2 C 21,1 C 17,2 C 53 % 1010,9 hPa 0,0 l/m 0 min 0 min 20 W/m 6,4 km/h (2 Bft) 97,83 %
10.10.2018 18:18 23,1 C 21,1 C 17,2 C 53 % 1010,9 hPa 0,0 l/m 0 min 0 min 19 W/m 12,9 km/h (3 Bft) 97,87 %
10.10.2018 18:20 23,0 C 20,6 C 17,2 C 53 % 1010,9 hPa 0,0 l/m 0 min 0 min 19 W/m 9,7 km/h (2 Bft) 100,00 %
10.10.2018 18:22 22,9 C 20,6 C 17,2 C 54 % 1010,9 hPa 0,0 l/m 0 min 0 min 18 W/m 3,2 km/h (1 Bft) 100,00 %
10.10.2018 18:24 22,8 C 20,6 C 17,2 C 54 % 1010,9 hPa 0,0 l/m 0 min 0 min 18 W/m 12,9 km/h (3 Bft) 100,00 %
10.10.2018 18:26 22,8 C 20,0 C 17,2 C 55 % 1010,8 hPa 0,0 l/m 0 min 0 min 16 W/m 6,4 km/h (2 Bft) 97,87 %
10.10.2018 18:28 22,7 C 20,0 C 16,7 C 55 % 1010,8 hPa 0,0 l/m 0 min 0 min 16 W/m 6,4 km/h (2 Bft) 100,00 %
10.10.2018 18:30 22,6 C 20,0 C 16,7 C 55 % 1010,7 hPa 0,0 l/m 0 min 0 min 16 W/m 6,4 km/h (2 Bft) 100,00 %
10.10.2018 18:32 22,4 C 20,0 C 16,7 C 54 % 1010,7 hPa 0,0 l/m 0 min 0 min 14 W/m 9,7 km/h (2 Bft) 97,92 %
10.10.2018 18:34 22,3 C 20,6 C 16,7 C 54 % 1010,8 hPa 0,0 l/m 0 min 0 min 14 W/m 12,9 km/h (3 Bft) 100,00 %
10.10.2018 18:38 22,2 C 20,6 C 16,7 C 55 % 1010,8 hPa 0,0 l/m 0 min 0 min 12 W/m 9,7 km/h (2 Bft) 97,87 %
10.10.2018 18:40 22,1 C 20,6 C 16,7 C 55 % 1010,8 hPa 0,0 l/m 0 min 0 min 11 W/m 12,9 km/h (3 Bft) 100,00 %
10.10.2018 18:42 22,1 C 20,6 C 16,7 C 55 % 1010,7 hPa 0,0 l/m 0 min 0 min 11 W/m 9,7 km/h (2 Bft) 100,00 %
10.10.2018 18:44 22,0 C 20,6 C 16,7 C 56 % 1010,7 hPa 0,0 l/m 0 min 0 min 9 W/m 9,7 km/h (2 Bft) 100,00 %
10.10.2018 18:46 21,9 C 20,6 C 16,7 C 56 % 1010,7 hPa 0,0 l/m 0 min 0 min 9 W/m 9,7 km/h (2 Bft) 100,00 %
10.10.2018 18:48 21,9 C 20,6 C 16,7 C 56 % 1010,7 hPa 0,0 l/m 0 min 0 min 8 W/m 12,9 km/h (3 Bft) 97,87 %
10.10.2018 18:50 21,8 C 20,0 C 16,7 C 57 % 1010,8 hPa 0,0 l/m 0 min 0 min 7 W/m 6,4 km/h (2 Bft) 100,00 %
10.10.2018 18:52 21,7 C 20,0 C 16,7 C 57 % 1010,7 hPa 0,0 l/m 0 min 0 min 7 W/m 9,7 km/h (2 Bft) 100,00 %
10.10.2018 18:54 21,7 C 20,0 C 16,7 C 57 % 1010,7 hPa 0,0 l/m 0 min 0 min 5 W/m 12,9 km/h (3 Bft) 97,87 %
10.10.2018 18:56 21,6 C 20,0 C 16,7 C 57 % 1010,8 hPa 0,0 l/m 0 min 0 min 5 W/m 12,9 km/h (3 Bft) 91,49 %
10.10.2018 18:58 21,6 C 20,0 C 16,7 C 58 % 1010,9 hPa 0,0 l/m 0 min 0 min 4 W/m 12,9 km/h (3 Bft) 95,74 %
10.10.2018 19:00 21,5 C 20,0 C 16,7 C 58 % 1010,9 hPa 0,0 l/m 0 min 0 min 0 W/m 12,9 km/h (3 Bft) 95,74 %
10.10.2018 19:02 21,4 C 20,0 C 16,7 C 58 % 1011,0 hPa 0,0 l/m 0 min 0 min 0 W/m 12,9 km/h (3 Bft) 95,74 %
10.10.2018 19:04 21,4 C 20,0 C 16,7 C 58 % 1011,0 hPa 0,0 l/m 0 min 0 min 0 W/m 9,7 km/h (2 Bft) 95,65 %
10.10.2018 19:08 21,3 C 20,0 C 16,7 C 59 % 1011,0 hPa 0,0 l/m 0 min 0 min 0 W/m 9,7 km/h (2 Bft) 93,81 %
10.10.2018 19:10 21,2 C 20,0 C 16,7 C 59 % 1011,0 hPa 0,0 l/m 0 min 0 min 0 W/m 6,4 km/h (2 Bft) 95,74 %
10.10.2018 19:12 21,2 C 19,4 C 16,7 C 59 % 1011,0 hPa 0,0 l/m 0 min 0 min 0 W/m 6,4 km/h (2 Bft) 93,62 %
10.10.2018 19:14 21,1 C 19,4 C 16,7 C 59 % 1011,0 hPa 0,0 l/m 0 min 0 min 0 W/m 6,4 km/h (2 Bft) 93,48 %
10.10.2018 19:16 21,1 C 19,4 C 16,1 C 60 % 1011,1 hPa 0,0 l/m 0 min 0 min 0 W/m 6,4 km/h (2 Bft) 93,62 %
10.10.2018 19:18 21,1 C 19,4 C 16,1 C 60 % 1011,1 hPa 0,0 l/m 0 min 0 min 0 W/m 6,4 km/h (2 Bft) 95,74 %
10.10.2018 19:20 21,0 C 19,4 C 16,1 C 60 % 1011,1 hPa 0,0 l/m 0 min 0 min 0 W/m 9,7 km/h (2 Bft) 93,62 %
10.10.2018 19:22 20,9 C 19,4 C 16,1 C 61 % 1011,0 hPa 0,0 l/m 0 min 0 min 0 W/m 12,9 km/h (3 Bft) 93,02 %
10.10.2018 19:24 20,9 C 19,4 C 16,1 C 61 % 1011,0 hPa 0,0 l/m 0 min 0 min 0 W/m 9,7 km/h (2 Bft) 93,62 %
10.10.2018 19:26 20,9 C 18,9 C 16,1 C 61 % 1011,0 hPa 0,0 l/m 0 min 0 min 0 W/m 6,4 km/h (2 Bft) 95,74 %
10.10.2018 19:28 20,8 C 18,9 C 16,1 C 61 % 1011,0 hPa 0,0 l/m 0 min 0 min 0 W/m 9,7 km/h (2 Bft) 95,74 %
10.10.2018 19:30 20,7 C 18,9 C 16,1 C 62 % 1011,0 hPa 0,0 l/m 0 min 0 min 0 W/m 6,4 km/h (2 Bft) 95,74 %
10.10.2018 19:32 20,7 C 18,9 C 16,1 C 62 % 1011,0 hPa 0,0 l/m 0 min 0 min 0 W/m 9,7 km/h (2 Bft) 93,48 %
10.10.2018 19:34 20,6 C 18,9 C 16,1 C 62 % 1011,1 hPa 0,0 l/m 0 min 0 min 0 W/m 9,7 km/h (2 Bft) 95,74 %
10.10.2018 19:38 20,5 C 19,4 C 16,1 C 63 % 1010,9 hPa 0,0 l/m 0 min 0 min 0 W/m 9,7 km/h (2 Bft) 95,79 %
10.10.2018 19:40 20,5 C 18,9 C 16,1 C 63 % 1011,0 hPa 0,0 l/m 0 min 0 min 0 W/m 6,4 km/h (2 Bft) 97,87 %
10.10.2018 19:42 20,4 C 18,9 C 16,1 C 63 % 1010,9 hPa 0,0 l/m 0 min 0 min 0 W/m 6,4 km/h (2 Bft) 95,74 %
10.10.2018 19:44 20,4 C 18,9 C 16,1 C 64 % 1011,0 hPa 0,0 l/m 0 min 0 min 0 W/m 6,4 km/h (2 Bft) 97,83 %
10.10.2018 19:46 20,4 C 18,9 C 16,1 C 64 % 1011,0 hPa 0,0 l/m 0 min 0 min 0 W/m 6,4 km/h (2 Bft) 95,74 %
10.10.2018 19:48 20,3 C 18,9 C 16,1 C 64 % 1011,0 hPa 0,0 l/m 0 min 0 min 0 W/m 3,2 km/h (1 Bft) 97,87 %
10.10.2018 19:51 20,2 C 18,3 C 16,1 C 64 % 1010,9 hPa 0,0 l/m 0 min 0 min 0 W/m 3,2 km/h (1 Bft) 98,59 %
10.10.2018 19:52 20,2 C 18,3 C 15,6 C 64 % 1010,9 hPa 0,0 l/m 0 min 0 min 0 W/m 0,0 km/h (0 Bft) 95,83 %
10.10.2018 19:54 20,2 C 17,8 C 15,6 C 65 % 1010,9 hPa 0,0 l/m 0 min 0 min 0 W/m 0,0 km/h (0 Bft) 97,87 %
10.10.2018 19:56 20,1 C 17,8 C 15,6 C 65 % 1010,9 hPa 0,0 l/m 0 min 0 min 0 W/m 3,2 km/h (1 Bft) 100,00 %
10.10.2018 19:58 20,1 C 17,2 C 15,6 C 65 % 1010,9 hPa 0,0 l/m 0 min 0 min 0 W/m 0,0 km/h (0 Bft) 100,00 %
10.10.2018 20:00 20,0 C 17,2 C 15,6 C 66 % 1010,9 hPa 0,0 l/m 0 min 0 min 0 W/m 0,0 km/h (0 Bft) 95,74 %
10.10.2018 20:02 19,9 C 16,7 C 15,0 C 66 % 1010,9 hPa 0,0 l/m 0 min 0 min 0 W/m 0,0 km/h (0 Bft) 93,62 %
10.10.2018 20:04 19,8 C 16,7 C 15,0 C 66 % 1011,0 hPa 0,0 l/m 0 min 0 min 0 W/m 0,0 km/h (0 Bft) 97,87 %
10.10.2018 20:08 19,6 C 16,1 C 15,0 C 67 % 1010,9 hPa 0,0 l/m 0 min 0 min 0 W/m 0,0 km/h (0 Bft) 97,87 %
10.10.2018 20:10 19,5 C 16,1 C 15,0 C 67 % 1010,8 hPa 0,0 l/m 0 min 0 min 0 W/m 3,2 km/h (1 Bft) 100,00 %
10.10.2018 20:12 19,3 C 16,1 C 15,0 C 67 % 1010,8 hPa 0,0 l/m 0 min 0 min 0 W/m 0,0 km/h (0 Bft) 96,43 %
10.10.2018 20:14 19,2 C 16,1 C 14,4 C 68 % 1010,8 hPa 0,0 l/m 0 min 0 min 0 W/m 3,2 km/h (1 Bft) 97,78 %
10.10.2018 20:16 19,1 C 15,6 C 14,4 C 68 % 1010,8 hPa 0,0 l/m 0 min 0 min 0 W/m 3,2 km/h (1 Bft) 97,87 %
10.10.2018 20:18 19,0 C 15,6 C 14,4 C 68 % 1010,8 hPa 0,0 l/m 0 min 0 min 0 W/m 3,2 km/h (1 Bft) 97,87 %
10.10.2018 20:20 18,9 C 15,6 C 14,4 C 68 % 1010,9 hPa 0,0 l/m 0 min 0 min 0 W/m 3,2 km/h (1 Bft) 97,92 %
10.10.2018 20:22 18,8 C 15,6 C 14,4 C 69 % 1010,8 hPa 0,0 l/m 0 min 0 min 0 W/m 3,2 km/h (1 Bft) 97,87 %
10.10.2018 20:24 18,7 C 15,6 C 14,4 C 69 % 1010,9 hPa 0,0 l/m 0 min 0 min 0 W/m 0,0 km/h (0 Bft) 97,14 %
10.10.2018 20:26 18,6 C 15,6 C 14,4 C 69 % 1010,9 hPa 0,0 l/m 0 min 0 min 0 W/m 3,2 km/h (1 Bft) 98,28 %
10.10.2018 20:28 18,5 C 15,6 C 14,4 C 69 % 1010,9 hPa 0,0 l/m 0 min 0 min 0 W/m 0,0 km/h (0 Bft) 97,87 %
10.10.2018 20:30 18,4 C 15,0 C 14,4 C 70 % 1010,9 hPa 0,0 l/m 0 min 0 min 0 W/m 3,2 km/h (1 Bft) 97,87 %
10.10.2018 20:32 18,3 C 15,0 C 13,9 C 70 % 1010,9 hPa 0,0 l/m 0 min 0 min 0 W/m 9,7 km/h (2 Bft) 97,87 %
10.10.2018 20:34 18,2 C 15,6 C 13,9 C 70 % 1010,9 hPa 0,0 l/m 0 min 0 min 0 W/m 6,4 km/h (2 Bft) 97,87 %
10.10.2018 20:38 18,0 C 15,6 C 13,9 C 71 % 1010,9 hPa 0,0 l/m 0 min 0 min 0 W/m 3,2 km/h (1 Bft) 97,56 %
10.10.2018 20:40 17,9 C 15,6 C 13,9 C 71 % 1010,9 hPa 0,0 l/m 0 min 0 min 0 W/m 3,2 km/h (1 Bft) 98,31 %
10.10.2018 20:42 17,8 C 15,6 C 13,9 C 72 % 1010,9 hPa 0,0 l/m 0 min 0 min 0 W/m 3,2 km/h (1 Bft) 97,87 %
10.10.2018 20:44 17,7 C 15,6 C 13,9 C 72 % 1011,0 hPa 0,0 l/m 0 min 0 min 0 W/m 3,2 km/h (1 Bft) 95,74 %
10.10.2018 20:46 17,7 C 15,6 C 13,9 C 72 % 1011,0 hPa 0,0 l/m 0 min 0 min 0 W/m 6,4 km/h (2 Bft) 100,00 %
10.10.2018 20:48 17,6 C 15,6 C 13,9 C 73 % 1011,0 hPa 0,0 l/m 0 min 0 min 0 W/m 6,4 km/h (2 Bft) 97,87 %
10.10.2018 20:50 17,5 C 15,6 C 13,9 C 73 % 1011,0 hPa 0,0 l/m 0 min 0 min 0 W/m 6,4 km/h (2 Bft) 97,83 %
10.10.2018 20:52 17,5 C 15,6 C 13,9 C 73 % 1011,0 hPa 0,0 l/m 0 min 0 min 0 W/m 3,2 km/h (1 Bft) 97,87 %
10.10.2018 20:54 17,4 C 15,6 C 13,9 C 74 % 1011,0 hPa 0,0 l/m 0 min 0 min 0 W/m 3,2 km/h (1 Bft) 97,87 %
10.10.2018 20:56 17,3 C 15,6 C 14,4 C 74 % 1011,0 hPa 0,0 l/m 0 min 0 min 0 W/m 0,0 km/h (0 Bft) 95,74 %
10.10.2018 20:58 17,3 C 15,6 C 13,9 C 74 % 1011,0 hPa 0,0 l/m 0 min 0 min 0 W/m 0,0 km/h (0 Bft) 95,74 %
10.10.2018 21:00 17,2 C 15,0 C 13,9 C 74 % 1011,0 hPa 0,0 l/m 0 min 0 min 0 W/m 0,0 km/h (0 Bft) 97,87 %
10.10.2018 21:02 17,2 C 15,0 C 13,9 C 75 % 1011,0 hPa 0,0 l/m 0 min 0 min 0 W/m 3,2 km/h (1 Bft) 97,83 %
10.10.2018 21:04 17,1 C 15,0 C 13,9 C 75 % 1011,1 hPa 0,0 l/m 0 min 0 min 0 W/m 6,4 km/h (2 Bft) 97,87 %
10.10.2018 21:08 17,0 C 15,0 C 13,9 C 76 % 1011,1 hPa 0,0 l/m 0 min 0 min 0 W/m 6,4 km/h (2 Bft) 100,00 %
10.10.2018 21:10 16,9 C 15,0 C 13,9 C 76 % 1011,0 hPa 0,0 l/m 0 min 0 min 0 W/m 3,2 km/h (1 Bft) 100,00 %
10.10.2018 21:12 16,9 C 15,0 C 13,9 C 76 % 1011,0 hPa 0,0 l/m 0 min 0 min 0 W/m 3,2 km/h (1 Bft) 100,00 %
10.10.2018 21:14 16,8 C 15,0 C 13,9 C 76 % 1011,1 hPa 0,0 l/m 0 min 0 min 0 W/m 3,2 km/h (1 Bft) 97,83 %
10.10.2018 21:16 16,8 C 15,0 C 13,9 C 76 % 1011,0 hPa 0,0 l/m 0 min 0 min 0 W/m 3,2 km/h (1 Bft) 100,00 %
10.10.2018 21:18 16,7 C 14,4 C 13,9 C 77 % 1010,9 hPa 0,0 l/m 0 min 0 min 0 W/m 3,2 km/h (1 Bft) 100,00 %
10.10.2018 21:20 16,7 C 14,4 C 13,9 C 77 % 1010,9 hPa 0,0 l/m 0 min 0 min 0 W/m 0,0 km/h (0 Bft) 97,92 %
10.10.2018 21:22 16,6 C 14,4 C 13,9 C 77 % 1010,9 hPa 0,0 l/m 0 min 0 min 0 W/m 3,2 km/h (1 Bft) 97,87 %
10.10.2018 21:24 16,6 C 14,4 C 13,9 C 77 % 1010,8 hPa 0,0 l/m 0 min 0 min 0 W/m 3,2 km/h (1 Bft) 95,74 %
10.10.2018 21:26 16,6 C 14,4 C 13,9 C 77 % 1010,8 hPa 0,0 l/m 0 min 0 min 0 W/m 0,0 km/h (0 Bft) 95,65 %
10.10.2018 21:28 16,5 C 14,4 C 13,9 C 77 % 1010,8 hPa 0,0 l/m 0 min 0 min 0 W/m 0,0 km/h (0 Bft) 100,00 %
10.10.2018 21:30 16,4 C 14,4 C 13,3 C 77 % 1011,0 hPa 0,0 l/m 0 min 0 min 0 W/m 0,0 km/h (0 Bft) 100,00 %
10.10.2018 21:32 16,4 C 14,4 C 13,3 C 77 % 1011,1 hPa 0,0 l/m 0 min 0 min 0 W/m 0,0 km/h (0 Bft) 100,00 %
10.10.2018 21:34 16,3 C 14,4 C 13,3 C 78 % 1011,1 hPa 0,0 l/m 0 min 0 min 0 W/m 0,0 km/h (0 Bft) 97,87 %
10.10.2018 21:38 16,2 C 14,4 C 13,3 C 78 % 1011,0 hPa 0,0 l/m 0 min 0 min 0 W/m 0,0 km/h (0 Bft) 98,78 %
10.10.2018 21:40 16,2 C 13,9 C 13,3 C 78 % 1011,0 hPa 0,0 l/m 0 min 0 min 0 W/m 0,0 km/h (0 Bft) 98,33 %
10.10.2018 21:42 16,1 C 13,9 C 13,3 C 78 % 1010,9 hPa 0,0 l/m 0 min 0 min 0 W/m 0,0 km/h (0 Bft) 100,00 %
10.10.2018 21:44 16,1 C 13,9 C 13,3 C 78 % 1010,9 hPa 0,0 l/m 0 min 0 min 0 W/m 0,0 km/h (0 Bft) 97,87 %
10.10.2018 21:46 16,0 C 13,9 C 13,3 C 78 % 1011,0 hPa 0,0 l/m 0 min 0 min 0 W/m 0,0 km/h (0 Bft) 95,65 %
10.10.2018 21:48 15,9 C 13,9 C 12,8 C 79 % 1010,9 hPa 0,0 l/m 0 min 0 min 0 W/m 0,0 km/h (0 Bft) 93,62 %
10.10.2018 21:50 15,9 C 13,9 C 13,3 C 79 % 1010,9 hPa 0,0 l/m 0 min 0 min 0 W/m 3,2 km/h (1 Bft) 95,74 %
10.10.2018 21:52 15,9 C 13,9 C 12,8 C 79 % 1010,9 hPa 0,0 l/m 0 min 0 min 0 W/m 3,2 km/h (1 Bft) 93,62 %
10.10.2018 21:54 15,8 C 13,9 C 12,8 C 79 % 1010,8 hPa 0,0 l/m 0 min 0 min 0 W/m 0,0 km/h (0 Bft) 95,83 %
10.10.2018 21:56 15,8 C 13,9 C 12,8 C 79 % 1010,8 hPa 0,0 l/m 0 min 0 min 0 W/m 3,2 km/h (1 Bft) 95,74 %
10.10.2018 21:58 15,7 C 13,9 C 13,3 C 80 % 1010,8 hPa 0,0 l/m 0 min 0 min 0 W/m 0,0 km/h (0 Bft) 95,65 %
10.10.2018 22:00 15,7 C 14,4 C 13,3 C 80 % 1010,9 hPa 0,0 l/m 0 min 0 min 0 W/m 0,0 km/h (0 Bft) 95,74 %
10.10.2018 22:02 15,6 C 14,4 C 13,3 C 80 % 1010,8 hPa 0,0 l/m 0 min 0 min 0 W/m 0,0 km/h (0 Bft) 95,83 %
10.10.2018 22:04 15,6 C 14,4 C 13,3 C 81 % 1010,7 hPa 0,0 l/m 0 min 0 min 0 W/m 0,0 km/h (0 Bft) 93,62 %
10.10.2018 22:08 15,5 C 13,9 C 13,3 C 81 % 1010,7 hPa 0,0 l/m 0 min 0 min 0 W/m 0,0 km/h (0 Bft) 95,18 %
10.10.2018 22:10 15,5 C 13,9 C 13,3 C 81 % 1010,8 hPa 0,0 l/m 0 min 0 min 0 W/m 3,2 km/h (1 Bft) 95,74 %
10.10.2018 22:12 15,4 C 13,9 C 13,3 C 82 % 1010,7 hPa 0,0 l/m 0 min 0 min 0 W/m 3,2 km/h (1 Bft) 95,74 %
10.10.2018 22:14 15,4 C 13,9 C 13,3 C 82 % 1010,7 hPa 0,0 l/m 0 min 0 min 0 W/m 3,2 km/h (1 Bft) 95,12 %
10.10.2018 22:16 15,4 C 13,9 C 13,3 C 82 % 1010,7 hPa 0,0 l/m 0 min 0 min 0 W/m 3,2 km/h (1 Bft) 95,83 %
10.10.2018 22:18 15,3 C 14,4 C 13,3 C 83 % 1010,7 hPa 0,0 l/m 0 min 0 min 0 W/m 3,2 km/h (1 Bft) 97,87 %
10.10.2018 22:20 15,3 C 14,4 C 13,3 C 83 % 1010,7 hPa 0,0 l/m 0 min 0 min 0 W/m 3,2 km/h (1 Bft) 98,33 %
10.10.2018 22:22 15,3 C 14,4 C 13,3 C 83 % 1010,7 hPa 0,0 l/m 0 min 0 min 0 W/m 6,4 km/h (2 Bft) 100,00 %
10.10.2018 22:24 15,3 C 15,0 C 13,3 C 83 % 1010,7 hPa 0,0 l/m 0 min 0 min 0 W/m 3,2 km/h (1 Bft) 97,87 %
10.10.2018 22:26 15,3 C 15,0 C 13,3 C 84 % 1010,8 hPa 0,0 l/m 0 min 0 min 0 W/m 3,2 km/h (1 Bft) 97,83 %
10.10.2018 22:28 15,2 C 15,0 C 13,3 C 84 % 1010,8 hPa 0,0 l/m 0 min 0 min 0 W/m 6,4 km/h (2 Bft) 95,74 %
10.10.2018 22:30 15,2 C 15,0 C 13,3 C 84 % 1010,8 hPa 0,0 l/m 0 min 0 min 0 W/m 6,4 km/h (2 Bft) 95,74 %
10.10.2018 22:32 15,2 C 15,0 C 13,3 C 85 % 1010,7 hPa 0,0 l/m 0 min 0 min 0 W/m 9,7 km/h (2 Bft) 97,92 %
10.10.2018 22:34 15,2 C 15,6 C 13,3 C 85 % 1010,7 hPa 0,0 l/m 0 min 0 min 0 W/m 6,4 km/h (2 Bft) 97,87 %
10.10.2018 22:38 15,2 C 15,6 C 13,3 C 85 % 1010,7 hPa 0,0 l/m 0 min 0 min 0 W/m 6,4 km/h (2 Bft) 98,94 %
10.10.2018 22:40 15,3 C 15,6 C 13,3 C 85 % 1010,6 hPa 0,0 l/m 0 min 0 min 0 W/m 6,4 km/h (2 Bft) 100,00 %
10.10.2018 22:42 15,3 C 15,6 C 13,3 C 85 % 1010,7 hPa 0,0 l/m 0 min 0 min 0 W/m 0,0 km/h (0 Bft) 100,00 %
10.10.2018 22:44 15,3 C 15,6 C 13,3 C 85 % 1010,7 hPa 0,0 l/m 0 min 0 min 0 W/m 3,2 km/h (1 Bft) 95,74 %
10.10.2018 22:46 15,3 C 15,0 C 13,3 C 86 % 1010,8 hPa 0,0 l/m 0 min 0 min 0 W/m 0,0 km/h (0 Bft) 100,00 %
10.10.2018 22:48 15,3 C 15,0 C 13,3 C 86 % 1010,7 hPa 0,0 l/m 0 min 0 min 0 W/m 0,0 km/h (0 Bft) 100,00 %
10.10.2018 22:50 15,3 C 15,0 C 13,3 C 86 % 1010,6 hPa 0,0 l/m 0 min 0 min 0 W/m 0,0 km/h (0 Bft) 97,92 %
10.10.2018 22:52 15,3 C 15,0 C 13,3 C 86 % 1010,6 hPa 0,0 l/m 0 min 0 min 0 W/m 0,0 km/h (0 Bft) 100,00 %
10.10.2018 22:54 15,3 C 14,4 C 13,3 C 86 % 1010,6 hPa 0,0 l/m 0 min 0 min 0 W/m 6,4 km/h (2 Bft) 97,92 %
10.10.2018 22:56 15,3 C 15,0 C 13,3 C 86 % 1010,6 hPa 0,0 l/m 0 min 0 min 0 W/m 3,2 km/h (1 Bft) 100,00 %
10.10.2018 22:58 15,3 C 15,0 C 13,3 C 86 % 1010,5 hPa 0,0 l/m 0 min 0 min 0 W/m 0,0 km/h (0 Bft) 100,00 %
10.10.2018 23:00 15,3 C 15,0 C 13,3 C 86 % 1010,5 hPa 0,0 l/m 0 min 0 min 0 W/m 0,0 km/h (0 Bft) 100,00 %
10.10.2018 23:02 15,3 C 14,4 C 13,3 C 86 % 1010,5 hPa 0,0 l/m 0 min 0 min 0 W/m 0,0 km/h (0 Bft) 100,00 %
10.10.2018 23:04 15,3 C 14,4 C 13,3 C 86 % 1010,4 hPa 0,0 l/m 0 min 0 min 0 W/m 0,0 km/h (0 Bft) 100,00 %
10.10.2018 23:08 15,3 C 15,0 C 13,3 C 86 % 1010,4 hPa 0,0 l/m 0 min 0 min 0 W/m 6,4 km/h (2 Bft) 98,95 %
10.10.2018 23:10 15,3 C 15,0 C 13,3 C 86 % 1010,3 hPa 0,0 l/m 0 min 0 min 0 W/m 3,2 km/h (1 Bft) 100,00 %
10.10.2018 23:12 15,3 C 15,0 C 13,3 C 86 % 1010,4 hPa 0,0 l/m 0 min 0 min 0 W/m 6,4 km/h (2 Bft) 100,00 %
10.10.2018 23:14 15,3 C 15,0 C 13,3 C 86 % 1010,3 hPa 0,0 l/m 0 min 0 min 0 W/m 6,4 km/h (2 Bft) 100,00 %
10.10.2018 23:16 15,3 C 15,6 C 13,3 C 86 % 1010,3 hPa 0,0 l/m 0 min 0 min 0 W/m 6,4 km/h (2 Bft) 100,00 %
10.10.2018 23:18 15,3 C 15,6 C 13,3 C 86 % 1010,2 hPa 0,0 l/m 0 min 0 min 0 W/m 6,4 km/h (2 Bft) 100,00 %
10.10.2018 23:20 15,4 C 15,6 C 13,3 C 86 % 1010,2 hPa 0,0 l/m 0 min 0 min 0 W/m 12,9 km/h (3 Bft) 100,00 %
10.10.2018 23:22 15,4 C 15,6 C 13,9 C 86 % 1010,2 hPa 0,0 l/m 0 min 0 min 0 W/m 6,4 km/h (2 Bft) 97,87 %
10.10.2018 23:24 15,4 C 15,6 C 13,9 C 86 % 1010,2 hPa 0,0 l/m 0 min 0 min 0 W/m 3,2 km/h (1 Bft) 100,00 %
10.10.2018 23:26 15,4 C 15,6 C 13,9 C 86 % 1010,2 hPa 0,0 l/m 0 min 0 min 0 W/m 12,9 km/h (3 Bft) 100,00 %
10.10.2018 23:28 15,4 C 15,6 C 13,9 C 86 % 1010,2 hPa 0,0 l/m 0 min 0 min 0 W/m 3,2 km/h (1 Bft) 100,00 %
10.10.2018 23:30 15,4 C 15,6 C 13,9 C 86 % 1010,2 hPa 0,0 l/m 0 min 0 min 0 W/m 9,7 km/h (2 Bft) 100,00 %
10.10.2018 23:32 15,5 C 15,6 C 13,9 C 86 % 1010,2 hPa 0,0 l/m 0 min 0 min 0 W/m 3,2 km/h (1 Bft) 98,00 %
10.10.2018 23:34 15,5 C 15,6 C 13,9 C 86 % 1010,2 hPa 0,0 l/m 0 min 0 min 0 W/m 9,7 km/h (2 Bft) 100,00 %
10.10.2018 23:38 15,6 C 15,6 C 13,9 C 86 % 1010,1 hPa 0,0 l/m 0 min 0 min 0 W/m 6,4 km/h (2 Bft) 100,00 %
10.10.2018 23:40 15,6 C 15,6 C 13,9 C 86 % 1010,1 hPa 0,0 l/m 0 min 0 min 0 W/m 6,4 km/h (2 Bft) 97,87 %
10.10.2018 23:42 15,6 C 15,6 C 13,9 C 85 % 1010,1 hPa 0,0 l/m 0 min 0 min 0 W/m 6,4 km/h (2 Bft) 100,00 %
10.10.2018 23:44 15,6 C 15,6 C 13,9 C 85 % 1010,2 hPa 0,0 l/m 0 min 0 min 0 W/m 0,0 km/h (0 Bft) 97,87 %
10.10.2018 23:46 15,7 C 15,6 C 13,9 C 85 % 1010,2 hPa 0,0 l/m 0 min 0 min 0 W/m 12,9 km/h (3 Bft) 100,00 %
10.10.2018 23:48 15,7 C 15,6 C 13,9 C 85 % 1010,2 hPa 0,0 l/m 0 min 0 min 0 W/m 6,4 km/h (2 Bft) 100,00 %
10.10.2018 23:50 15,7 C 15,6 C 13,9 C 85 % 1010,3 hPa 0,0 l/m 0 min 0 min 0 W/m 0,0 km/h (0 Bft) 97,87 %
10.10.2018 23:52 15,7 C 15,6 C 13,9 C 85 % 1010,3 hPa 0,0 l/m 0 min 0 min 0 W/m 0,0 km/h (0 Bft) 95,74 %
10.10.2018 23:54 15,7 C 15,0 C 13,9 C 85 % 1010,2 hPa 0,0 l/m 0 min 0 min 0 W/m 0,0 km/h (0 Bft) 95,74 %
10.10.2018 23:56 15,7 C 15,0 C 13,9 C 85 % 1010,2 hPa 0,0 l/m 0 min 0 min 0 W/m 0,0 km/h (0 Bft) 95,74 %
10.10.2018 23:58 15,7 C 14,4 C 13,3 C 85 % 1010,2 hPa 0,0 l/m 0 min 0 min 0 W/m 3,2 km/h (1 Bft) 97,83 %
_ Min-Zeit 08:32 07:34 07:38 16:45 23:38 - - - - 00:00 05:15
Minimum _ 7,6 C 6,7 C 6,7 C 48 % 1010,1 hPa - - - - 0,0 km/h (0 Bft) 44,74 %
_ Max-Zeit 16:54 12:12 16:02 10:22 00:00 00:00 16:45 00:00 14:04 17:26 00:00
Maximum _ 24,7 C 30,6 C 18,9 C 99 % 1018,8 hPa 0,0 l/m 5 min 0 min 502 W/m 25,7 km/h
S-SO (4 Bft)
100,00 %
Durchschnitt _ 15,7 C 16,0 C 12,6 C 81 % 1014,9 hPa #0,0 l/m #4:18 h #0 min. 183 W/m 4,8 km/h (1 Bft) 97,56 %
© 2018 W. Hausmann